M I D A S
Marine Information and Data Acquisition System
Tripno 1885 of the Zeeleeuw from 2010-05-21 06:58:12 to 2010-05-21 13:27:16
Back to CruiseResearch ActivitiesStationsMapUnderway DataData graphs

EquipmentUnitsComment
TimeDGPSUTC
LatitudeDGPSDM.mWGS84
LongitudeDGPSDM.mWGS84
TemperatureSBE03/SBE38deg celciusITS90
ConductivitySBE21S/mITS90
SalinitySBE21 Practical Salinity Units
ChlorophylAChelsea fluorimeterg/lCalibrated in Aceton
Missing or incorrect values are displayed as -999
Sea surface data collected by the RV Zeeleeuw from 2010-05-21 06:52:44 to 2010-05-21 13:36:57
                                                                                    Next 1000 lines
Time Latitude Longitude Temperature Conductivity Salinity ChlorophylA
2010-05-21 06:52:54 51°13.662 2°55.958 20.1833 0.069011 0.353908 -1.000568
2010-05-21 06:52:59 51°13.662 2°55.956 20.1966 0.069011 0.353903 -1.035392
2010-05-21 06:53:04 51°13.662 2°55.953 20.2655 0.069011 0.353908 -1.000568
2010-05-21 06:53:10 51°13.663 2°55.948 20.2967 0.069011 0.353914 -0.965744
2010-05-21 06:53:14 51°13.664 2°55.944 20.2686 0.069011 0.353914 -0.965744
2010-05-21 06:53:20 51°13.665 2°55.938 20.2869 0.069011 0.353908 -1.000568
2010-05-21 06:53:26 51°13.667 2°55.931 20.2959 0.069011 0.353903 -1.000568
2010-05-21 06:53:31 51°13.669 2°55.924 20.2963 0.069011 0.353908 -1.000568
2010-05-21 06:53:37 51°13.671 2°55.916 20.3105 0.069011 0.353919 -1.000568
2010-05-21 06:53:43 51°13.673 2°55.906 20.3253 0.069011 0.353924 -1.000568
2010-05-21 06:53:48 51°13.675 2°55.898 20.3196 0.069011 0.353924 -1.000568
2010-05-21 06:53:53 51°13.677 2°55.889 20.3297 0.069011 0.353929 -1.000568
2010-05-21 06:53:58 51°13.679 2°55.881 20.3122 0.069011 0.35394 -1.000568
2010-05-21 06:54:03 51°13.681 2°55.872 20.284 0.069011 0.353945 -1.000568
2010-05-21 06:54:08 51°13.683 2°55.863 20.2974 0.069011 0.35395 -1.000568
2010-05-21 06:54:13 51°13.685 2°55.854 20.3073 0.069011 0.35395 -1.035392
2010-05-21 06:54:17 51°13.687 2°55.847 20.3091 0.069011 0.35395 -1.035392
2010-05-21 06:54:22 51°13.689 2°55.839 20.3139 0.069011 0.353955 -1.000568
2010-05-21 06:54:28 51°13.691 2°55.829 20.3161 0.069011 0.35395 -1.000568
2010-05-21 06:54:33 51°13.692 2°55.82 20.3209 0.069011 0.35395 -1.000568
2010-05-21 06:54:37 51°13.694 2°55.814 20.3077 0.069011 0.35395 -1.000568
2010-05-21 06:54:42 51°13.695 2°55.806 20.3101 0.069011 0.353955 -1.035392
2010-05-21 06:54:47 51°13.697 2°55.798 20.3036 0.069011 0.353955 -1.035392
2010-05-21 06:54:53 51°13.698 2°55.789 20.3097 0.069011 0.353955 -1.000568
2010-05-21 06:54:57 51°13.699 2°55.783 20.3206 0.069011 0.353961 -1.000568
2010-05-21 06:55:02 51°13.701 2°55.776 20.306 0.069011 0.353966 -1.000568
2010-05-21 06:55:07 51°13.702 2°55.769 20.2867 0.069011 0.353971 -0.965744
2010-05-21 06:55:12 51°13.703 2°55.762 20.3105 0.069011 0.353976 -1.000568
2010-05-21 06:55:18 51°13.704 2°55.754 20.311 0.069011 0.353976 -1.000568
2010-05-21 06:55:22 51°13.704 2°55.748 20.3399 0.069011 0.353976 -1.000568
2010-05-21 06:55:27 51°13.705 2°55.742 20.3302 0.069011 0.353971 -1.035392
2010-05-21 06:55:32 51°13.705 2°55.736 20.3506 0.069011 0.353976 -1.035392
2010-05-21 06:55:37 51°13.706 2°55.732 20.3418 0.069011 0.353987 -1.000568
2010-05-21 06:55:42 51°13.706 2°55.73 20.3464 0.069011 0.353976 -1.000568
2010-05-21 06:55:46 51°13.706 2°55.728 20.3166 0.069011 0.353976 -1.000568
2010-05-21 06:55:51 51°13.706 2°55.726 20.3281 0.069011 0.353987 -1.000568
2010-05-21 06:55:56 51°13.707 2°55.725 20.3056 0.069011 0.353992 -1.035392
2010-05-21 06:56:01 51°13.707 2°55.725 20.3204 0.069011 0.353992 -1.000568
2010-05-21 06:56:06 51°13.707 2°55.724 20.2943 0.069011 0.353992 -1.000568
2010-05-21 06:56:10 51°13.707 2°55.724 20.3079 0.069011 0.353997 -1.000568
2010-05-21 06:56:15 51°13.708 2°55.725 20.3091 0.069011 0.353997 -1.000568
2010-05-21 06:56:20 51°13.708 2°55.725 20.3336 0.069011 0.354002 -1.000568
2010-05-21 06:56:26 51°13.709 2°55.726 20.3385 0.069011 0.353997 -1.000568
2010-05-21 06:56:30 51°13.71 2°55.727 20.3258 0.069011 0.354002 -1.000568
2010-05-21 06:56:35 51°13.711 2°55.728 20.2814 0.069011 0.353997 -1.000568
2010-05-21 06:56:40 51°13.713 2°55.729 20.3181 0.069011 0.354008 -1.000568
2010-05-21 06:56:44 51°13.714 2°55.73 20.2646 0.069011 0.354008 -1.000568
2010-05-21 06:56:50 51°13.716 2°55.731 20.228 0.069011 0.354008 -1.000568
2010-05-21 06:56:54 51°13.718 2°55.732 20.1593 0.069011 0.354013 -1.000568
2010-05-21 06:56:59 51°13.719 2°55.732 20.2318 0.069011 0.354018 -1.035392
2010-05-21 06:57:04 51°13.719 2°55.732 20.0184 0.069011 0.354018 -0.965744
2010-05-21 06:57:09 51°13.718 2°55.732 20.2148 0.069011 0.354018 -1.000568
2010-05-21 06:57:14 51°13.717 2°55.731 20.2702 0.069011 0.354018 -1.000568
2010-05-21 06:57:19 51°13.715 2°55.73 20.2093 0.069011 0.354023 -1.000568
2010-05-21 06:57:23 51°13.713 2°55.729 20.2747 0.069011 0.354029 -1.000568
2010-05-21 06:57:29 51°13.71 2°55.727 20.2331 0.069011 0.354023 -1.000568
2010-05-21 06:57:35 51°13.706 2°55.726 20.2519 0.069011 0.354023 -1.000568
2010-05-21 06:57:41 51°13.704 2°55.725 20.2451 0.069011 0.354029 -1.000568
2010-05-21 06:57:46 51°13.702 2°55.724 20.2574 0.069011 0.354029 -1.000568
2010-05-21 06:57:52 51°13.701 2°55.724 20.2679 0.069011 0.354029 -1.000568
2010-05-21 06:57:57 51°13.702 2°55.724 20.3204 0.069011 0.354034 -1.000568
2010-05-21 06:58:02 51°13.703 2°55.723 20.3225 0.069011 0.354044 -1.000568
2010-05-21 06:58:07 51°13.704 2°55.723 20.3437 0.069011 0.354055 -1.000568
2010-05-21 06:58:12 51°13.706 2°55.723 20.346 0.069011 0.354055 -1.035392
2010-05-21 06:58:17 51°13.709 2°55.721 20.3563 0.069011 0.354055 -1.035392
2010-05-21 06:58:22 51°13.713 2°55.719 20.3383 0.069011 0.354065 -1.000568
2010-05-21 06:58:28 51°13.718 2°55.716 20.3218 0.069011 0.354065 -1.000568
2010-05-21 06:58:32 51°13.722 2°55.713 20.2887 0.069011 0.354055 -1.000568
2010-05-21 06:58:37 51°13.728 2°55.71 20.2759 0.069011 0.354049 -1.000568
2010-05-21 06:58:42 51°13.734 2°55.705 20.2556 0.069011 0.354049 -1.000568
2010-05-21 06:58:46 51°13.74 2°55.701 20.2353 0.069011 0.354049 -1.000568
2010-05-21 06:58:51 51°13.747 2°55.696 20.2352 0.069011 0.354049 -1.000568
2010-05-21 06:58:56 51°13.755 2°55.691 20.245 0.069011 0.354055 -1.000568
2010-05-21 06:59:01 51°13.764 2°55.684 20.1694 0.069011 0.35407 -1.000568
2010-05-21 06:59:06 51°13.773 2°55.678 20.1333 0.069011 0.354081 -1.000568
2010-05-21 06:59:11 51°13.782 2°55.671 20.0764 0.069011 0.354091 -1.000568
2010-05-21 06:59:15 51°13.789 2°55.665 20.0894 0.069011 0.354091 -1.000568
2010-05-21 06:59:21 51°13.801 2°55.656 20.1275 0.069011 0.354097 -1.000568
2010-05-21 06:59:25 51°13.809 2°55.649 20.1437 0.069011 0.354107 -1.000568
2010-05-21 06:59:30 51°13.819 2°55.641 20.1165 0.069011 0.354102 -1.035392
2010-05-21 06:59:35 51°13.83 2°55.633 20.0931 0.069011 0.354107 -1.035392
2010-05-21 06:59:40 51°13.84 2°55.624 19.9734 0.069011 0.354107 -1.035392
2010-05-21 06:59:45 51°13.851 2°55.615 19.911 0.069011 0.354107 -1.035392
2010-05-21 06:59:50 51°13.861 2°55.607 19.8556 0.069011 0.354112 -1.000568
2010-05-21 06:59:54 51°13.87 2°55.601 19.9802 0.069011 0.354112 -1.000568
2010-05-21 06:59:59 51°13.882 2°55.593 19.9979 0.069011 0.354117 -1.000568
2010-05-21 07:00:04 51°13.893 2°55.585 20.0547 0.069011 0.354128 -1.000568
2010-05-21 07:00:09 51°13.905 2°55.578 20.1245 0.069011 0.354133 -1.000568
2010-05-21 07:00:14 51°13.916 2°55.57 20.0939 0.069011 0.354133 -1.000568
2010-05-21 07:00:19 51°13.928 2°55.563 20.0525 0.069011 0.354138 -1.000568
2010-05-21 07:00:24 51°13.939 2°55.555 20.0703 0.069011 0.354144 -1.000568
2010-05-21 07:00:29 51°13.951 2°55.548 20.0961 0.069011 0.354144 -1.000568
2010-05-21 07:00:34 51°13.963 2°55.541 20.1235 0.069011 0.354138 -1.000568
2010-05-21 07:00:38 51°13.972 2°55.536 20.1387 0.069011 0.354138 -1.000568
2010-05-21 07:00:44 51°13.986 2°55.527 20.1557 0.069011 0.354138 -1.035392
2010-05-21 07:00:49 51°13.998 2°55.519 20.1348 0.069011 0.354144 -1.000568
2010-05-21 07:00:54 51°14.01 2°55.512 20.1371 0.069011 0.354149 -1.000568
2010-05-21 07:00:58 51°14.019 2°55.506 20.1608 0.069011 0.354149 -1.035392
2010-05-21 07:01:04 51°14.034 2°55.497 20.1727 0.069011 0.354159 -1.035392
2010-05-21 07:01:09 51°14.045 2°55.489 20.1808 0.069011 0.354165 -1.035392
2010-05-21 07:01:14 51°14.057 2°55.481 20.1811 0.069011 0.354165 -1.035392
2010-05-21 07:01:19 51°14.068 2°55.472 20.1863 0.069011 0.35417 -1.000568
2010-05-21 07:01:23 51°14.078 2°55.465 20.1967 0.069011 0.35417 -1.000568
2010-05-21 07:01:29 51°14.091 2°55.455 20.2039 0.069011 0.35417 -1.000568
2010-05-21 07:01:34 51°14.103 2°55.446 20.1983 0.069011 0.35417 -1.000568
2010-05-21 07:01:39 51°14.114 2°55.436 20.1825 0.069011 0.35417 -1.000568
2010-05-21 07:01:44 51°14.125 2°55.426 20.1608 0.069011 0.35417 -1.000568
2010-05-21 07:01:49 51°14.136 2°55.416 20.1232 0.069011 0.35417 -1.000568
2010-05-21 07:01:54 51°14.148 2°55.406 20.1397 0.069011 0.35417 -1.000568
2010-05-21 07:01:58 51°14.157 2°55.398 20.131 0.069011 0.35417 -1.000568
2010-05-21 07:02:04 51°14.171 2°55.386 20.1241 0.069011 0.354175 -0.965744
2010-05-21 07:02:09 51°14.183 2°55.376 20.1266 0.069011 0.354175 -1.035392
2010-05-21 07:02:14 51°14.195 2°55.366 20.0771 0.069011 0.354175 -1.035392
2010-05-21 07:02:19 51°14.208 2°55.356 20.0609 0.069011 0.354175 -1.035392
2010-05-21 07:02:24 51°14.221 2°55.346 20.0621 0.069011 0.35418 -1.000568
2010-05-21 07:02:29 51°14.234 2°55.336 20.0436 0.069011 0.354185 -0.965744
2010-05-21 07:02:34 51°14.247 2°55.326 20.0838 0.069011 0.354185 -1.000568
2010-05-21 07:02:39 51°14.261 2°55.316 20.2476 0.069011 0.354185 -1.000568
2010-05-21 07:02:44 51°14.274 2°55.306 20.2734 0.069011 0.354185 -1.000568
2010-05-21 07:02:49 51°14.287 2°55.294 20.2167 0.069011 0.354196 -1.000568
2010-05-21 07:02:54 51°14.3 2°55.282 20.1456 0.069011 0.354206 -1.035392
2010-05-21 07:02:58 51°14.31 2°55.271 20.1832 0.069011 0.354212 -1.000568
2010-05-21 07:03:04 51°14.325 2°55.255 20.2066 0.069011 0.354201 -1.000568
2010-05-21 07:03:09 51°14.338 2°55.241 20.2005 0.069011 0.354201 -1.000568
2010-05-21 07:03:14 51°14.351 2°55.225 20.103 0.069011 0.354201 -1.000568
2010-05-21 07:03:18 51°14.36 2°55.212 20.0371 0.069011 0.354206 -0.965744
2010-05-21 07:03:23 51°14.372 2°55.196 20.0239 0.069011 0.354201 -1.000568
2010-05-21 07:03:29 51°14.387 2°55.176 19.9459 0.069011 0.354201 -1.035392
2010-05-21 07:03:34 51°14.399 2°55.159 19.9831 0.069011 0.354212 -1.000568
2010-05-21 07:03:38 51°14.41 2°55.146 19.9536 0.069011 0.354206 -1.000568
2010-05-21 07:03:44 51°14.425 2°55.127 20.0589 0.069011 0.354206 -1.000568
2010-05-21 07:03:49 51°14.439 2°55.112 20.1028 0.069011 0.354201 -1.000568
2010-05-21 07:03:54 51°14.452 2°55.097 20.0015 0.069011 0.354212 -1.000568
2010-05-21 07:03:58 51°14.463 2°55.084 19.9693 0.069011 0.354217 -1.000568
2010-05-21 07:04:04 51°14.48 2°55.066 19.9931 0.069011 0.354227 -1.035392
2010-05-21 07:04:09 51°14.494 2°55.051 20.0943 0.069011 0.354227 -1.000568
2010-05-21 07:04:14 51°14.509 2°55.037 20.1338 0.069011 0.354227 -1.000568
2010-05-21 07:04:18 51°14.521 2°55.025 20.0815 0.069011 0.354217 -1.000568
2010-05-21 07:04:24 51°14.539 2°55.008 19.9884 0.069011 0.354227 -1.000568
2010-05-21 07:04:29 51°14.555 2°54.993 20.0424 0.069011 0.354227 -1.000568
2010-05-21 07:04:34 51°14.571 2°54.98 20.1011 0.069011 0.354217 -0.965744
2010-05-21 07:04:39 51°14.587 2°54.967 20.1663 0.069011 0.354233 -1.000568
2010-05-21 07:04:44 51°14.603 2°54.952 20.1396 0.069011 0.354233 -1.000568
2010-05-21 07:04:49 51°14.619 2°54.937 20.1356 0.069011 0.354238 -1.035392
2010-05-21 07:04:54 51°14.634 2°54.921 19.9593 0.069011 0.354243 -1.035392
2010-05-21 07:04:59 51°14.649 2°54.904 20.0432 0.069011 0.354238 -1.035392
2010-05-21 07:05:04 51°14.665 2°54.888 20.0146 0.069011 0.354233 -1.035392
2010-05-21 07:05:09 51°14.68 2°54.871 20.0684 0.069011 0.354222 -1.000568
2010-05-21 07:05:14 51°14.696 2°54.855 20.0456 0.069011 0.354222 -1.000568
2010-05-21 07:05:18 51°14.708 2°54.841 20.0128 0.069011 0.354222 -1.000568
2010-05-21 07:05:24 51°14.726 2°54.821 19.9774 0.069011 0.354217 -1.035392
2010-05-21 07:05:29 51°14.742 2°54.804 19.9567 0.069011 0.354233 -1.000568
2010-05-21 07:05:34 51°14.757 2°54.788 20.0657 0.069011 0.354233 -1.000568
2010-05-21 07:05:39 51°14.773 2°54.772 19.99 0.068907 0.353693 -1.035392
2010-05-21 07:05:43 51°14.786 2°54.76 19.9843 0.068907 0.353693 -1.035392
2010-05-21 07:05:49 51°14.805 2°54.742 20.0897 0.069011 0.354243 -1.035392
2010-05-21 07:05:54 51°14.822 2°54.728 19.9687 0.069011 0.354238 -1.000568
2010-05-21 07:05:58 51°14.835 2°54.716 20.0574 0.069011 0.354248 -1.000568
2010-05-21 07:06:04 51°14.855 2°54.698 20.0526 0.069011 0.354253 -1.035392
2010-05-21 07:06:09 51°14.871 2°54.683 20.0549 0.069011 0.354243 -1.000568
2010-05-21 07:06:14 51°14.888 2°54.668 20.0244 0.069011 0.354243 -1.000568
2010-05-21 07:06:18 51°14.901 2°54.656 20.0114 0.069011 0.354248 -1.035392
2010-05-21 07:06:24 51°14.92 2°54.639 20.0252 0.069011 0.354248 -1.035392
2010-05-21 07:06:29 51°14.936 2°54.624 20.0489 0.069011 0.354248 -1.000568
2010-05-21 07:06:34 51°14.953 2°54.609 20.0071 0.068907 0.353698 -1.000568
2010-05-21 07:06:39 51°14.969 2°54.593 20.0401 0.069011 0.354248 -1.000568
2010-05-21 07:06:44 51°14.985 2°54.577 20.0135 0.069011 0.354248 -1.000568
2010-05-21 07:06:49 51°15 2°54.562 20.0267 0.068907 0.353698 -1.000568
2010-05-21 07:06:54 51°15.017 2°54.547 19.9804 0.069011 0.354253 -1.000568
2010-05-21 07:06:59 51°15.033 2°54.532 20.024 0.068907 0.353703 -1.000568
2010-05-21 07:07:04 51°15.049 2°54.517 19.9831 0.068907 0.353703 -1.000568
2010-05-21 07:07:09 51°15.066 2°54.502 20.0624 0.069011 0.354253 -1.035392
2010-05-21 07:07:14 51°15.083 2°54.488 20.0119 0.069011 0.354253 -1.035392
2010-05-21 07:07:18 51°15.096 2°54.476 20.055 0.068907 0.353709 -1.000568
2010-05-21 07:07:24 51°15.115 2°54.458 18.0134 0.068907 0.353703 -1.000568
2010-05-21 07:07:29 51°15.131 2°54.442 16.0115 0.069011 0.354552 -0.861272
2010-05-21 07:07:34 51°15.148 2°54.427 15.5465 0.100229 0.523161 -1.035392
2010-05-21 07:07:38 51°15.161 2°54.414 14.4553 0.090447 0.471582 -0.826448
2010-05-21 07:07:44 51°15.18 2°54.394 14.0565 0.090447 0.471582 -0.826448
2010-05-21 07:07:49 51°15.195 2°54.377 13.9501 0.451836 2.552087 0.113802
2010-05-21 07:07:54 51°15.21 2°54.36 13.6543 1.504294 9.487715 1.541588
2010-05-21 07:07:58 51°15.222 2°54.345 13.5912 2.373282 15.950021 1.715708
2010-05-21 07:08:03 51°15.237 2°54.327 13.4651 2.990286 21.006816 2.795254
2010-05-21 07:08:09 51°15.255 2°54.304 13.3556 3.669264 27.420002 3.491735
2010-05-21 07:08:14 51°15.269 2°54.285 13.3963 3.669264 27.420002 3.491735
2010-05-21 07:08:19 51°15.284 2°54.266 13.3738 3.760181 28.930674 3.700679
2010-05-21 07:08:23 51°15.295 2°54.25 13.256 3.808178 29.903758 3.700679
2010-05-21 07:08:29 51°15.312 2°54.227 13.2144 3.776756 30.106834 3.735503
2010-05-21 07:08:34 51°15.326 2°54.207 13.1761 3.766216 30.401645 3.665855
2010-05-21 07:08:38 51°15.337 2°54.191 13.1569 3.73458 30.352052 3.491735
2010-05-21 07:08:44 51°15.354 2°54.166 13.1744 3.73458 30.352052 3.491735
2010-05-21 07:08:49 51°15.367 2°54.146 13.161 3.716023 30.412239 3.422087
2010-05-21 07:08:54 51°15.381 2°54.126 13.1488 3.70337 30.4099 3.317614
2010-05-21 07:08:58 51°15.393 2°54.111 13.1262 3.693248 30.424148 3.143494
2010-05-21 07:09:04 51°15.411 2°54.089 13.1234 3.683547 30.41134 2.969374
2010-05-21 07:09:09 51°15.426 2°54.071 13.0715 3.672476 30.391425 2.93455
2010-05-21 07:09:14 51°15.441 2°54.053 13.0542 3.672476 30.391425 2.93455
2010-05-21 07:09:18 51°15.453 2°54.039 13.0955 3.66404 30.352927 2.76043
2010-05-21 07:09:24 51°15.472 2°54.018 13.0612 3.653391 30.299462 2.830078
2010-05-21 07:09:29 51°15.487 2°54 13.0251 3.647486 30.269482 3.073846
2010-05-21 07:09:34 51°15.503 2°53.983 13.0225 3.651704 30.332257 3.422087
2010-05-21 07:09:38 51°15.515 2°53.969 12.9894 3.648963 30.322277 3.596207
2010-05-21 07:09:44 51°15.533 2°53.947 12.9575 3.648963 30.322277 3.596207
2010-05-21 07:09:49 51°15.548 2°53.929 12.9563 3.643796 30.304607 3.839975
2010-05-21 07:09:54 51°15.562 2°53.91 12.9351 3.63979 30.292118 3.805151
2010-05-21 07:09:58 51°15.574 2°53.895 12.9648 3.639684 30.307723 3.735503
2010-05-21 07:10:04 51°15.591 2°53.872 12.9489 3.631249 30.245648 3.735503
2010-05-21 07:10:09 51°15.606 2°53.854 12.9436 3.629246 30.240609 3.631031
2010-05-21 07:10:14 51°15.62 2°53.835 12.9563 3.629246 30.240609 3.631031
2010-05-21 07:10:18 51°15.632 2°53.82 12.9247 3.63009 30.277916 3.526559
2010-05-21 07:10:24 51°15.649 2°53.797 12.9148 3.631355 30.303186 3.456911
2010-05-21 07:10:29 51°15.664 2°53.778 12.9449 3.626611 30.285683 3.422087
2010-05-21 07:10:34 51°15.679 2°53.76 12.9258 3.62756 30.31361 3.352439
2010-05-21 07:10:39 51°15.693 2°53.741 12.9136 3.631251 30.353434 3.387263
2010-05-21 07:10:44 51°15.708 2°53.722 12.8846 3.631251 30.353434 3.387263
2010-05-21 07:10:49 51°15.722 2°53.704 12.8874 3.630196 30.355391 3.422087
2010-05-21 07:10:54 51°15.737 2°53.685 12.8479 3.622604 30.291673 3.526559
2010-05-21 07:10:59 51°15.751 2°53.667 12.8594 3.621023 30.283774 3.561383
2010-05-21 07:11:04 51°15.766 2°53.648 12.8271 3.624713 30.326097 3.561383
2010-05-21 07:11:09 51°15.781 2°53.63 12.8361 3.624713 30.326097 3.561383
2010-05-21 07:11:14 51°15.795 2°53.611 12.8456 3.62988 30.374738 3.596207
2010-05-21 07:11:18 51°15.807 2°53.597 12.8271 3.633044 30.41283 3.665855
2010-05-21 07:11:24 51°15.824 2°53.574 12.8085 3.626717 30.365155 3.700679
2010-05-21 07:11:29 51°15.839 2°53.556 12.7989 3.632412 30.438 3.526559
2010-05-21 07:11:34 51°15.853 2°53.538 12.7989 3.632728 30.452765 3.561383
2010-05-21 07:11:38 51°15.865 2°53.523 12.7717 3.632201 30.462174 3.526559
2010-05-21 07:11:44 51°15.882 2°53.501 12.7516 3.632201 30.462174 3.526559
2010-05-21 07:11:49 51°15.896 2°53.483 12.7552 3.630303 30.455078 3.526559
2010-05-21 07:11:54 51°15.911 2°53.465 12.7386 3.626929 30.425501 3.422087
2010-05-21 07:11:58 51°15.922 2°53.45 12.7459 3.625453 30.420458 3.247966
2010-05-21 07:12:04 51°15.94 2°53.428 12.7306 3.631463 30.485844 3.10867
2010-05-21 07:12:09 51°15.954 2°53.41 12.7418 3.624188 30.431707 3.004198
2010-05-21 07:12:14 51°15.969 2°53.392 12.7222 3.624188 30.431707 3.004198
2010-05-21 07:12:19 51°15.983 2°53.374 12.721 3.632307 30.517453 2.830078
2010-05-21 07:12:23 51°15.995 2°53.36 12.701 3.631675 30.530315 2.725606
2010-05-21 07:12:29 51°16.012 2°53.338 12.7056 3.629355 30.520542 2.655957
2010-05-21 07:12:34 51°16.027 2°53.321 12.6925 3.626508 30.50208 2.655957
2010-05-21 07:12:38 51°16.039 2°53.306 12.7083 3.630832 30.548747 2.551485
2010-05-21 07:12:44 51°16.056 2°53.285 12.7075 3.630832 30.548747 2.551485
2010-05-21 07:12:49 51°16.071 2°53.267 12.6976 3.631043 30.558245 2.551485
2010-05-21 07:12:54 51°16.086 2°53.249 12.701 3.626825 30.524454 2.551485
2010-05-21 07:12:59 51°16.101 2°53.232 12.7101 3.631886 30.579944 2.551485
2010-05-21 07:13:04 51°16.115 2°53.214 12.7079 3.63389 30.608117 2.621133
2010-05-21 07:13:09 51°16.131 2°53.197 12.6918 3.633257 30.607858 2.586309
2010-05-21 07:13:14 51°16.146 2°53.18 12.6885 3.633257 30.607858 2.586309
2010-05-21 07:13:19 51°16.161 2°53.164 12.6811 3.633574 30.617111 2.586309
2010-05-21 07:13:24 51°16.177 2°53.148 12.68 3.631043 30.596567 2.621133
2010-05-21 07:13:29 51°16.193 2°53.133 12.6655 3.63273 30.615508 2.586309
2010-05-21 07:13:34 51°16.209 2°53.117 12.6713 3.633363 30.619543 2.621133
2010-05-21 07:13:39 51°16.225 2°53.102 12.6652 3.63252 30.612275 2.690782
2010-05-21 07:13:43 51°16.238 2°53.089 12.6646 3.63252 30.612275 2.690782
2010-05-21 07:13:49 51°16.257 2°53.072 12.6633 3.632414 30.615065 2.655957
2010-05-21 07:13:54 51°16.274 2°53.057 12.6678 3.631992 30.611745 2.76043
2010-05-21 07:13:59 51°16.29 2°53.042 12.6648 3.630727 30.60871 2.76043
2010-05-21 07:14:04 51°16.306 2°53.026 12.6508 3.631044 30.621122 2.76043
2010-05-21 07:14:09 51°16.323 2°53.011 12.6623 3.629146 30.605859 2.830078
2010-05-21 07:14:14 51°16.339 2°52.996 12.6445 3.629146 30.605859 2.830078
2010-05-21 07:14:18 51°16.352 2°52.984 12.6447 3.62788 30.599043 2.93455
2010-05-21 07:14:23 51°16.368 2°52.969 12.6487 3.623241 30.556832 2.969374
2010-05-21 07:14:29 51°16.388 2°52.952 12.6378 3.627353 30.597252 3.004198
2010-05-21 07:14:34 51°16.404 2°52.937 12.6341 3.628513 30.611903 3.10867
2010-05-21 07:14:38 51°16.418 2°52.926 12.6527 3.622714 30.557554 3.178318
2010-05-21 07:14:43 51°16.434 2°52.911 12.6273 3.622714 30.557554 3.178318
2010-05-21 07:14:49 51°16.454 2°52.894 12.6286 3.622608 30.563488 3.317614
2010-05-21 07:14:54 51°16.471 2°52.879 12.6375 3.626615 30.602936 3.387263
2010-05-21 07:14:59 51°16.488 2°52.865 12.6366 3.627353 30.61427 3.491735
2010-05-21 07:15:03 51°16.501 2°52.854 12.632 3.627037 30.615719 3.631031
2010-05-21 07:15:09 51°16.521 2°52.837 12.6293 3.625561 30.60566 3.631031
2010-05-21 07:15:14 51°16.538 2°52.822 12.6207 3.625561 30.60566 3.631031
2010-05-21 07:15:18 51°16.551 2°52.811 12.6219 3.624823 30.599999 3.770327
2010-05-21 07:15:24 51°16.571 2°52.794 12.6215 3.627037 30.622029 3.805151
2010-05-21 07:15:29 51°16.588 2°52.78 12.6311 3.623347 30.593721 3.735503
2010-05-21 07:15:34 51°16.605 2°52.766 12.6263 3.62419 30.600372 3.770327
2010-05-21 07:15:39 51°16.622 2°52.752 12.632 3.625877 30.61746 3.839975
2010-05-21 07:15:44 51°16.639 2°52.739 12.6266 3.625877 30.61746 3.839975
2010-05-21 07:15:49 51°16.656 2°52.726 12.6293 3.625245 30.612156 3.874799
2010-05-21 07:15:54 51°16.673 2°52.713 12.6198 3.621976 30.5878 3.839975
2010-05-21 07:15:59 51°16.69 2°52.699 12.6188 3.625772 30.625941 3.839975
2010-05-21 07:16:04 51°16.707 2°52.686 12.6166 3.623663 30.607414 3.770327
2010-05-21 07:16:09 51°16.725 2°52.673 12.6175 3.624612 30.615688 3.735503
2010-05-21 07:16:14 51°16.742 2°52.66 12.6022 3.624612 30.615688 3.735503
2010-05-21 07:16:19 51°16.759 2°52.647 12.6084 3.625245 30.618468 3.665855
2010-05-21 07:16:24 51°16.776 2°52.634 12.6063 3.623769 30.60651 3.700679
2010-05-21 07:16:29 51°16.794 2°52.621 12.6192 3.618602 30.560558 3.700679
2010-05-21 07:16:34 51°16.811 2°52.607 12.6099 3.620605 30.581246 3.700679
2010-05-21 07:16:38 51°16.824 2°52.597 12.612 3.620394 30.579898 3.700679
2010-05-21 07:16:44 51°16.845 2°52.581 12.611 3.620394 30.579898 3.700679
2010-05-21 07:16:49 51°16.862 2°52.567 12.6142 3.623769 30.614086 3.700679
2010-05-21 07:16:54 51°16.879 2°52.554 12.6025 3.622503 30.607893 3.665855
2010-05-21 07:16:59 51°16.896 2°52.54 12.6028 3.623558 30.620318 3.631031
2010-05-21 07:17:03 51°16.91 2°52.529 12.5955 3.619762 30.585947 3.631031
2010-05-21 07:17:09 51°16.93 2°52.512 12.5926 3.623347 30.620865 3.561383
2010-05-21 07:17:14 51°16.947 2°52.497 12.583 3.623347 30.620865 3.561383
2010-05-21 07:17:18 51°16.961 2°52.487 12.5676 3.617548 30.567056 3.526559
2010-05-21 07:17:24 51°16.982 2°52.47 12.5502 3.620922 30.596203 3.422087
2010-05-21 07:17:29 51°16.999 2°52.457 12.5188 3.622609 30.612672 3.422087
2010-05-21 07:17:34 51°17.016 2°52.443 12.4725 3.617653 30.567415 3.352439
2010-05-21 07:17:39 51°17.033 2°52.43 12.454 3.624085 30.634748 3.317614
2010-05-21 07:17:44 51°17.05 2°52.416 12.4354 3.624085 30.634748 3.317614
2010-05-21 07:17:49 51°17.067 2°52.403 12.4043 3.626194 30.655819 3.247966
2010-05-21 07:17:54 51°17.084 2°52.389 12.3837 3.629463 30.694125 3.178318
2010-05-21 07:17:59 51°17.101 2°52.376 12.3598 3.633048 30.735428 3.10867
2010-05-21 07:18:04 51°17.119 2°52.363 12.3492 3.634947 30.771065 3.004198
2010-05-21 07:18:09 51°17.136 2°52.351 12.3548 3.636634 30.807311 2.93455
2010-05-21 07:18:14 51°17.154 2°52.34 12.344 3.636634 30.807311 2.93455
2010-05-21 07:18:18 51°17.169 2°52.332 12.3248 3.636529 30.831829 2.969374
2010-05-21 07:18:24 51°17.191 2°52.32 12.3237 3.641485 30.892594 2.969374
2010-05-21 07:18:29 51°17.209 2°52.31 12.301 3.645809 30.963503 3.039022
2010-05-21 07:18:34 51°17.228 2°52.301 12.2964 3.643173 30.960456 3.178318
2010-05-21 07:18:38 51°17.242 2°52.294 12.3041 3.646232 31.011222 3.213142
2010-05-21 07:18:44 51°17.265 2°52.285 12.2892 3.646232 31.011222 3.213142
2010-05-21 07:18:49 51°17.283 2°52.276 12.2853 3.643912 31.002821 3.317614
2010-05-21 07:18:54 51°17.302 2°52.269 12.2754 3.651399 31.085895 3.456911
2010-05-21 07:18:59 51°17.321 2°52.262 12.2647 3.65161 31.098884 3.456911
2010-05-21 07:19:03 51°17.336 2°52.256 12.2573 3.651399 31.105947 3.456911
2010-05-21 07:19:09 51°17.359 2°52.248 12.2546 3.651399 31.120193 3.456911
2010-05-21 07:19:14 51°17.378 2°52.241 12.2517 3.651399 31.120193 3.456911
2010-05-21 07:19:18 51°17.393 2°52.236 12.2502 3.650345 31.117332 3.422087
2010-05-21 07:19:24 51°17.416 2°52.228 12.2453 3.650134 31.123111 3.491735
2010-05-21 07:19:29 51°17.435 2°52.222 12.2344 3.650451 31.132594 3.456911
2010-05-21 07:19:34 51°17.454 2°52.217 12.2302 3.648342 31.121684 3.491735
2010-05-21 07:19:39 51°17.473 2°52.212 12.2338 3.649186 31.13682 3.422087
2010-05-21 07:19:44 51°17.492 2°52.206 12.225 3.649186 31.13682 3.422087
2010-05-21 07:19:49 51°17.512 2°52.201 12.2239 3.648975 31.143911 3.456911
2010-05-21 07:19:54 51°17.531 2°52.196 12.2243 3.648342 31.143105 3.422087
2010-05-21 07:19:59 51°17.55 2°52.191 12.2208 3.648659 31.151955 3.422087
2010-05-21 07:20:04 51°17.57 2°52.185 12.2172 3.646128 31.13054 3.422087
2010-05-21 07:20:09 51°17.589 2°52.18 12.2226 3.643597 31.112369 3.422087
2010-05-21 07:20:14 51°17.608 2°52.175 12.2066 3.643597 31.112369 3.422087
2010-05-21 07:20:19 51°17.627 2°52.17 12.206 3.645706 31.139532 3.352439
2010-05-21 07:20:24 51°17.646 2°52.164 12.2042 3.645812 31.143784 3.317614
2010-05-21 07:20:29 51°17.666 2°52.16 12.1902 3.640329 31.096278 3.28279
2010-05-21 07:20:34 51°17.685 2°52.155 12.1988 3.642332 31.120497 3.28279
2010-05-21 07:20:39 51°17.704 2°52.15 12.1953 3.644441 31.141824 3.28279
2010-05-21 07:20:44 51°17.724 2°52.146 12.1983 3.644441 31.141824 3.28279
2010-05-21 07:20:49 51°17.743 2°52.142 12.1956 3.645074 31.147832 3.247966
2010-05-21 07:20:54 51°17.762 2°52.14 12.1836 3.643281 31.136662 3.247966
2010-05-21 07:20:59 51°17.782 2°52.138 12.184 3.644125 31.146626 3.213142
2010-05-21 07:21:04 51°17.801 2°52.137 12.1791 3.642965 31.142115 3.143494
2010-05-21 07:21:09 51°17.821 2°52.136 12.17 3.643176 31.149326 3.178318
2010-05-21 07:21:14 51°17.84 2°52.138 12.1735 3.643176 31.149326 3.178318
2010-05-21 07:21:18 51°17.856 2°52.139 12.1722 3.64286 31.14632 3.213142
2010-05-21 07:21:24 51°17.88 2°52.142 12.1637 3.637798 31.099531 3.143494
2010-05-21 07:21:29 51°17.899 2°52.144 12.152 3.636638 31.091761 3.213142
2010-05-21 07:21:34 51°17.919 2°52.148 12.1462 3.640751 31.136044 3.213142
2010-05-21 07:21:38 51°17.934 2°52.151 12.1486 3.639591 31.126321 3.247966
2010-05-21 07:21:44 51°17.958 2°52.156 12.1442 3.639591 31.126321 3.247966
2010-05-21 07:21:49 51°17.977 2°52.16 12.1399 3.639802 31.132883 3.247966
2010-05-21 07:21:54 51°17.997 2°52.165 12.1454 3.638009 31.119097 3.317614
2010-05-21 07:21:59 51°18.017 2°52.17 12.1338 3.639697 31.137741 3.28279
2010-05-21 07:22:03 51°18.032 2°52.174 12.1266 3.634319 31.091171 3.352439
2010-05-21 07:22:09 51°18.056 2°52.18 12.1307 3.633686 31.094914 3.352439
2010-05-21 07:22:14 51°18.075 2°52.185 12.1289 3.633686 31.094914 3.352439
2010-05-21 07:22:19 51°18.095 2°52.19 12.1232 3.635373 31.116168 3.387263
2010-05-21 07:22:24 51°18.114 2°52.195 12.1235 3.627676 31.045563 3.387263
2010-05-21 07:22:29 51°18.134 2°52.2 12.1143 3.633686 31.10533 3.422087
2010-05-21 07:22:34 51°18.153 2°52.205 12.1195 3.631472 31.086219 3.456911
2010-05-21 07:22:39 51°18.173 2°52.211 12.1243 3.633265 31.113695 3.387263
2010-05-21 07:22:44 51°18.193 2°52.216 12.1186 3.633265 31.113695 3.387263
2010-05-21 07:22:49 51°18.212 2°52.221 12.1129 3.631894 31.099348 3.456911
2010-05-21 07:22:54 51°18.232 2°52.226 12.1125 3.627992 31.06548 3.387263
2010-05-21 07:22:58 51°18.248 2°52.23 12.119 3.63105 31.097834 3.387263
2010-05-21 07:23:04 51°18.271 2°52.236 12.1187 3.624513 31.038226 3.456911
2010-05-21 07:23:09 51°18.291 2°52.241 12.1151 3.632105 31.113736 3.352439
2010-05-21 07:23:14 51°18.311 2°52.246 12.1151 3.632105 31.113736 3.352439
2010-05-21 07:23:19 51°18.33 2°52.251 12.1128 3.630945 31.104651 3.352439
2010-05-21 07:23:23 51°18.346 2°52.255 12.1147 3.630945 31.103999 3.317614
2010-05-21 07:23:29 51°18.37 2°52.259 12.1306 3.62968 31.09456 3.317614
2010-05-21 07:23:34 51°18.39 2°52.263 12.1231 3.629891 31.097871 3.213142
2010-05-21 07:23:38 51°18.405 2°52.266 12.1204 3.6262 31.062089 3.213142
2010-05-21 07:23:43 51°18.425 2°52.269 12.1298 3.6262 31.062089 3.213142
2010-05-21 07:23:49 51°18.449 2°52.273 12.1234 3.630207 31.102187 3.10867
2010-05-21 07:23:54 51°18.468 2°52.276 12.1324 3.627782 31.078447 3.073846
2010-05-21 07:23:59 51°18.488 2°52.278 12.1173 3.630734 31.109814 3.004198
2010-05-21 07:24:03 51°18.504 2°52.281 12.122 3.627887 31.081405 3.004198
2010-05-21 07:24:09 51°18.527 2°52.284 12.1145 3.627887 31.081405 3.004198
2010-05-21 07:24:14 51°18.547 2°52.286 12.1151 3.626727 31.067107 2.969374
2010-05-21 07:24:18 51°18.563 2°52.288 12.1181 3.631051 31.108262 2.969374
2010-05-21 07:24:24 51°18.586 2°52.291 12.1185 3.630523 31.101939 3.039022
2010-05-21 07:24:29 51°18.606 2°52.293 12.1228 3.630734 31.104599 3.004198
2010-05-21 07:24:34 51°18.626 2°52.295 12.1305 3.630629 31.103595 3.039022
2010-05-21 07:24:39 51°18.645 2°52.298 12.1365 3.631156 31.107962 3.004198
2010-05-21 07:24:44 51°18.665 2°52.3 12.1441 3.631156 31.107962 3.004198
2010-05-21 07:24:49 51°18.684 2°52.303 12.153 3.628731 31.089436 3.004198
2010-05-21 07:24:54 51°18.704 2°52.305 12.1651 3.629996 31.102786 2.969374
2010-05-21 07:24:58 51°18.719 2°52.307 12.1765 3.62852 31.088731 2.93455
2010-05-21 07:25:04 51°18.743 2°52.309 12.1858 3.631578 31.118499 2.864902
2010-05-21 07:25:09 51°18.762 2°52.311 12.1986 3.631578 31.113281 2.830078
2010-05-21 07:25:14 51°18.782 2°52.314 12.209 3.631578 31.113281 2.830078
2010-05-21 07:25:19 51°18.801 2°52.316 12.2194 3.628731 31.083572 2.830078
2010-05-21 07:25:23 51°18.817 2°52.318 12.2282 3.630101 31.090757 2.830078
2010-05-21 07:25:29 51°18.84 2°52.32 12.243 3.632421 31.106319 2.830078
2010-05-21 07:25:34 51°18.86 2°52.322 12.2562 3.626832 31.04469 2.76043
2010-05-21 07:25:38 51°18.876 2°52.324 12.2621 3.632632 31.092045 2.725606
2010-05-21 07:25:43 51°18.895 2°52.326 12.272 3.632632 31.092045 2.725606
2010-05-21 07:25:49 51°18.919 2°52.328 12.2836 3.627676 31.035168 2.725606
2010-05-21 07:25:54 51°18.938 2°52.329 12.3012 3.627992 31.029085 2.655957
2010-05-21 07:25:59 51°18.958 2°52.331 12.3101 3.631261 31.048462 2.725606
2010-05-21 07:26:03 51°18.974 2°52.333 12.3183 3.62989 31.027004 2.621133
2010-05-21 07:26:09 51°18.997 2°52.336 12.3264 3.631366 31.028703 2.621133
2010-05-21 07:26:14 51°19.017 2°52.338 12.3297 3.631366 31.028703 2.621133
2010-05-21 07:26:18 51°19.032 2°52.34 12.333 3.627991 30.987604 2.551485
2010-05-21 07:26:24 51°19.056 2°52.342 12.3339 3.629573 30.990964 2.481837
2010-05-21 07:26:29 51°19.076 2°52.344 12.3428 3.625355 30.941262 2.412189
2010-05-21 07:26:34 51°19.095 2°52.346 12.3441 3.625038 30.930516 2.272893
2010-05-21 07:26:39 51°19.115 2°52.348 12.3485 3.62546 30.919678 2.238069
2010-05-21 07:26:44 51°19.135 2°52.35 12.3585 3.62546 30.919678 2.238069
2010-05-21 07:26:49 51°19.154 2°52.352 12.3596 3.6243 30.900311 2.203245
2010-05-21 07:26:54 51°19.174 2°52.354 12.3636 3.622613 30.87725 2.238069
2010-05-21 07:26:59 51°19.194 2°52.356 12.367 3.621347 30.860766 2.133597
2010-05-21 07:27:04 51°19.213 2°52.358 12.3742 3.624932 30.88892 2.098773
2010-05-21 07:27:09 51°19.233 2°52.36 12.3755 3.622296 30.859464 2.098773
2010-05-21 07:27:14 51°19.253 2°52.362 12.3749 3.622296 30.859464 2.098773
2010-05-21 07:27:19 51°19.272 2°52.364 12.3808 3.622613 30.858602 2.029124
2010-05-21 07:27:24 51°19.292 2°52.366 12.3864 3.619027 30.818898 1.9943
2010-05-21 07:27:29 51°19.311 2°52.368 12.3875 3.620714 30.832934 1.924652
2010-05-21 07:27:34 51°19.331 2°52.37 12.3892 3.618922 30.810203 1.889828
2010-05-21 07:27:38 51°19.347 2°52.372 12.3832 3.619343 30.810345 1.855004
2010-05-21 07:27:43 51°19.367 2°52.373 12.3823 3.619343 30.810345 1.855004
2010-05-21 07:27:49 51°19.39 2°52.376 12.3788 3.619238 30.805501 1.82018
2010-05-21 07:27:54 51°19.41 2°52.378 12.376 3.617656 30.787342 1.855004
2010-05-21 07:27:59 51°19.43 2°52.38 12.3776 3.620081 30.806426 1.785356
2010-05-21 07:28:03 51°19.445 2°52.382 12.3766 3.615336 30.757092 1.785356
2010-05-21 07:28:09 51°19.469 2°52.384 12.3765 3.613333 30.737519 1.750532
2010-05-21 07:28:14 51°19.489 2°52.387 12.3793 3.613333 30.737519 1.750532
2010-05-21 07:28:18 51°19.505 2°52.388 12.3784 3.622717 30.823015 1.855004
2010-05-21 07:28:24 51°19.528 2°52.391 12.3821 3.618711 30.788343 1.855004
2010-05-21 07:28:29 51°19.548 2°52.394 12.3867 3.623139 30.83149 1.855004
2010-05-21 07:28:34 51°19.568 2°52.396 12.3892 3.619027 30.791333 1.855004
2010-05-21 07:28:38 51°19.584 2°52.398 12.3938 3.617972 30.783287 1.855004
2010-05-21 07:28:44 51°19.607 2°52.401 12.3916 3.617972 30.783287 1.855004
2010-05-21 07:28:49 51°19.627 2°52.404 12.3874 3.617762 30.781934 1.855004
2010-05-21 07:28:54 51°19.647 2°52.406 12.3766 3.619343 30.797526 1.785356
2010-05-21 07:28:59 51°19.666 2°52.409 12.3636 3.616918 30.775241 1.82018
2010-05-21 07:29:04 51°19.686 2°52.412 12.3598 3.61987 30.800588 1.785356
2010-05-21 07:29:09 51°19.705 2°52.414 12.3545 3.614387 30.747484 1.750532
2010-05-21 07:29:14 51°19.725 2°52.417 12.3416 3.614387 30.747484 1.750532
2010-05-21 07:29:18 51°19.741 2°52.419 12.341 3.619238 30.790125 1.715708
2010-05-21 07:29:24 51°19.764 2°52.422 12.3215 3.615547 30.755247 1.715708
2010-05-21 07:29:29 51°19.784 2°52.425 12.3188 3.618605 30.782225 1.750532
2010-05-21 07:29:34 51°19.804 2°52.427 12.3119 3.615125 30.75254 1.750532
2010-05-21 07:29:39 51°19.823 2°52.429 12.3047 3.615125 30.75254 1.750532
2010-05-21 07:29:44 51°19.843 2°52.432 12.2981 3.602262 30.639929 1.82018
2010-05-21 07:29:49 51°19.862 2°52.434 12.2924 3.618078 30.794533 1.855004
2010-05-21 07:29:54 51°19.882 2°52.436 12.2892 3.619344 30.814834 1.924652
2010-05-21 07:29:58 51°19.898 2°52.438 12.2766 3.614388 30.77629 1.959476
2010-05-21 07:30:04 51°19.921 2°52.441 12.2743 3.600469 30.649775 2.133597
2010-05-21 07:30:09 51°19.941 2°52.443 12.2664 3.607429 30.724544 2.203245
2010-05-21 07:30:14 51°19.96 2°52.445 12.2603 3.607429 30.724544 2.203245
2010-05-21 07:30:18 51°19.976 2°52.447 12.2579 3.600153 30.660831 2.307717
2010-05-21 07:30:24 51°19.999 2°52.45 12.2542 3.602895 30.692521 2.412189
2010-05-21 07:30:29 51°20.019 2°52.452 12.241 3.614072 30.804728 2.447013
2010-05-21 07:30:34 51°20.038 2°52.454 12.2367 3.611541 30.789111 2.586309
2010-05-21 07:30:38 51°20.054 2°52.456 12.2302 3.600892 30.693394 2.621133
2010-05-21 07:30:44 51°20.077 2°52.458 12.2271 3.600892 30.693394 2.621133
2010-05-21 07:30:49 51°20.097 2°52.461 12.2235 3.594354 30.639815 2.725606
2010-05-21 07:30:54 51°20.116 2°52.463 12.2159 3.605953 30.756072 2.76043
2010-05-21 07:30:59 51°20.136 2°52.465 12.2119 3.604688 30.747934 2.899726
2010-05-21 07:31:03 51°20.151 2°52.467 12.2031 3.604793 30.75792 2.969374
2010-05-21 07:31:09 51°20.175 2°52.47 12.1973 3.589294 30.615534 3.10867
2010-05-21 07:31:14 51°20.194 2°52.472 12.1906 3.589294 30.615534 3.10867
2010-05-21 07:31:19 51°20.214 2°52.475 12.1772 3.595409 30.677318 3.178318
2010-05-21 07:31:24 51°20.233 2°52.477 12.1722 3.587501 30.606861 3.28279
2010-05-21 07:31:29 51°20.253 2°52.48 12.1643 3.596253 30.694927 3.491735
2010-05-21 07:31:34 51°20.272 2°52.482 12.1464 3.599522 30.73298 3.526559
2010-05-21 07:31:38 51°20.288 2°52.484 12.1251 3.594355 30.688475 3.700679
2010-05-21 07:31:44 51°20.311 2°52.487 12.1198 3.594355 30.688475 3.700679
2010-05-21 07:31:49 51°20.331 2°52.49 12.1196 3.598151 30.730255 3.909623
2010-05-21 07:31:54 51°20.35 2°52.492 12.1026 3.591614 30.675942 4.118568
2010-05-21 07:31:59 51°20.37 2°52.495 12.0922 3.589716 30.665633 4.188216
2010-05-21 07:32:04 51°20.389 2°52.497 12.0853 3.594777 30.721369 4.153392
2010-05-21 07:32:09 51°20.409 2°52.499 12.0825 3.580227 30.593533 4.04892
2010-05-21 07:32:14 51°20.428 2°52.502 12.0717 3.580227 30.593533 4.04892
2010-05-21 07:32:18 51°20.444 2°52.504 12.0613 3.590349 30.701175 3.874799
2010-05-21 07:32:24 51°20.467 2°52.506 12.0553 3.592458 30.7315 3.596207
2010-05-21 07:32:29 51°20.487 2°52.509 12.0517 3.590349 30.719186 3.456911
2010-05-21 07:32:34 51°20.506 2°52.511 12.0444 3.588346 30.709157 3.073846
2010-05-21 07:32:38 51°20.522 2°52.513 12.0402 3.587503 30.712727 2.899726
2010-05-21 07:32:44 51°20.545 2°52.517 12.034 3.587503 30.712727 2.899726
2010-05-21 07:32:49 51°20.565 2°52.519 12.0281 3.586343 30.710715 2.690782
2010-05-21 07:32:54 51°20.584 2°52.521 12.0182 3.585605 30.70756 2.481837
2010-05-21 07:32:58 51°20.6 2°52.523 12.0174 3.583918 30.705041 2.377365
2010-05-21 07:33:04 51°20.623 2°52.526 12.0129 3.582969 30.699878 2.272893
2010-05-21 07:33:09 51°20.643 2°52.529 12.013 3.582969 30.699878 2.272893
2010-05-21 07:33:14 51°20.662 2°52.531 12.0075 3.582442 30.703241 2.203245
2010-05-21 07:33:19 51°20.682 2°52.533 12.006 3.581283 30.698003 2.098773
2010-05-21 07:33:24 51°20.701 2°52.536 11.9995 3.579385 30.686381 2.029124
2010-05-21 07:33:29 51°20.721 2°52.539 11.9972 3.580017 30.695629 1.9943
2010-05-21 07:33:34 51°20.74 2°52.542 11.9984 3.578752 30.691964 1.924652
2010-05-21 07:33:39 51°20.76 2°52.544 12.0038 3.577909 30.68909 1.924652
2010-05-21 07:33:44 51°20.779 2°52.547 12.0002 3.577909 30.68909 1.924652
2010-05-21 07:33:49 51°20.799 2°52.55 11.9964 3.577171 30.68722 1.855004
2010-05-21 07:33:54 51°20.818 2°52.552 11.988 3.578542 30.702861 1.889828
2010-05-21 07:33:59 51°20.838 2°52.554 11.9979 3.578542 30.705444 1.855004
2010-05-21 07:34:04 51°20.857 2°52.557 11.9937 3.576327 30.688863 1.855004
2010-05-21 07:34:09 51°20.877 2°52.559 11.9924 3.576538 30.693455 1.924652
2010-05-21 07:34:14 51°20.896 2°52.562 11.9902 3.576538 30.693455 1.924652
2010-05-21 07:34:18 51°20.912 2°52.563 11.9944 3.574851 30.678023 1.924652
2010-05-21 07:34:24 51°20.935 2°52.566 11.9969 3.575484 30.684052 1.924652
2010-05-21 07:34:29 51°20.955 2°52.569 11.992 3.575695 30.689289 1.924652
2010-05-21 07:34:34 51°20.975 2°52.572 11.9775 3.576328 30.695965 1.924652
2010-05-21 07:34:39 51°20.994 2°52.575 11.9865 3.57327 30.668757 2.063949
2010-05-21 07:34:43 51°21.01 2°52.577 11.9786 3.57327 30.668757 2.063949
2010-05-21 07:34:49 51°21.033 2°52.58 11.978 3.576222 30.700127 2.098773
2010-05-21 07:34:54 51°21.053 2°52.583 11.9715 3.573797 30.677654 2.133597
2010-05-21 07:34:58 51°21.069 2°52.585 11.9745 3.573692 30.674067 2.238069
2010-05-21 07:35:04 51°21.092 2°52.589 11.9681 3.574851 30.685768 2.238069
2010-05-21 07:35:09 51°21.112 2°52.592 11.9744 3.575062 30.690362 2.307717
2010-05-21 07:35:14 51°21.131 2°52.595 11.9745 3.575062 30.690362 2.307717
2010-05-21 07:35:19 51°21.151 2°52.598 11.9739 3.576749 30.710323 2.307717
2010-05-21 07:35:23 51°21.167 2°52.6 11.9737 3.574746 30.693159 2.342541
2010-05-21 07:35:29 51°21.19 2°52.604 11.9757 3.574746 30.697682 2.412189
2010-05-21 07:35:34 51°21.21 2°52.607 11.9806 3.574852 30.699333 2.481837
2010-05-21 07:35:39 51°21.23 2°52.611 11.9896 3.574957 30.704217 2.481837
2010-05-21 07:35:43 51°21.245 2°52.613 11.9971 3.574957 30.704217 2.481837
2010-05-21 07:35:49 51°21.269 2°52.617 12.0071 3.576539 30.719303 2.516661
2010-05-21 07:35:54 51°21.288 2°52.62 12.0178 3.575906 30.713915 2.551485
2010-05-21 07:35:58 51°21.304 2°52.622 12.0314 3.575168 30.703643 2.551485
2010-05-21 07:36:04 51°21.328 2°52.626 12.0354 3.574535 30.700195 2.586309
2010-05-21 07:36:09 51°21.347 2°52.629 12.0419 3.576011 30.712334 2.586309
2010-05-21 07:36:14 51°21.367 2°52.632 12.0479 3.576011 30.712334 2.586309
2010-05-21 07:36:18 51°21.383 2°52.635 12.0555 3.575801 30.707091 2.516661
2010-05-21 07:36:24 51°21.406 2°52.639 12.0574 3.576011 30.705224 2.447013
2010-05-21 07:36:29 51°21.426 2°52.642 12.0612 3.578647 30.723247 2.412189
2010-05-21 07:36:34 51°21.446 2°52.645 12.0579 3.578858 30.71621 2.238069
2010-05-21 07:36:38 51°21.462 2°52.647 12.0568 3.578225 30.701784 2.203245
2010-05-21 07:36:43 51°21.481 2°52.651 12.0517 3.578225 30.701784 2.203245
2010-05-21 07:36:49 51°21.505 2°52.655 12.0476 3.578225 30.695329 2.133597
2010-05-21 07:36:54 51°21.525 2°52.658 12.0433 3.577803 30.684216 2.063949
2010-05-21 07:36:59 51°21.544 2°52.661 12.0369 3.577909 30.678128 1.9943
2010-05-21 07:37:03 51°21.56 2°52.664 12.0275 3.578647 30.681932 1.959476
2010-05-21 07:37:09 51°21.584 2°52.668 12.025 3.577698 30.67032 1.959476
2010-05-21 07:37:14 51°21.604 2°52.671 12.0173 3.577698 30.67032 1.959476
2010-05-21 07:37:18 51°21.62 2°52.673 12.0181 3.57717 30.662724 1.924652
2010-05-21 07:37:23 51°21.639 2°52.677 12.0025 3.576749 30.659353 1.889828
2010-05-21 07:37:29 51°21.663 2°52.68 11.9952 3.575905 30.654544 1.855004
2010-05-21 07:37:34 51°21.683 2°52.684 11.9947 3.576854 30.66551 1.889828
2010-05-21 07:37:39 51°21.703 2°52.687 11.9879 3.577698 30.677409 1.855004
2010-05-21 07:37:44 51°21.723 2°52.69 11.9847 3.577698 30.677409 1.855004
2010-05-21 07:37:49 51°21.742 2°52.693 11.9871 3.5758 30.665781 1.889828
2010-05-21 07:37:54 51°21.762 2°52.697 11.9786 3.575378 30.666276 1.924652
2010-05-21 07:37:59 51°21.782 2°52.7 11.9712 3.576116 30.679111 1.924652
2010-05-21 07:38:03 51°21.798 2°52.703 11.9666 3.575378 30.677884 1.889828
2010-05-21 07:38:09 51°21.822 2°52.707 11.9612 3.575695 30.686061 1.889828
2010-05-21 07:38:14 51°21.841 2°52.71 11.9546 3.575695 30.686061 1.889828
2010-05-21 07:38:19 51°21.861 2°52.713 11.96 3.572743 30.662442 1.889828
2010-05-21 07:38:24 51°21.881 2°52.716 11.9579 3.5758 30.698044 1.855004
2010-05-21 07:38:29 51°21.901 2°52.719 11.9572 3.573692 30.679877 1.889828
2010-05-21 07:38:34 51°21.921 2°52.722 11.9637 3.575379 30.699837 1.889828
2010-05-21 07:38:38 51°21.937 2°52.725 11.9609 3.575379 30.699837 1.889828
2010-05-21 07:38:44 51°21.961 2°52.728 11.9624 3.575168 30.703643 1.889828
2010-05-21 07:38:49 51°21.981 2°52.732 11.9635 3.574008 30.697752 1.855004
2010-05-21 07:38:54 51°22 2°52.734 11.9669 3.573692 30.699906 1.889828
2010-05-21 07:38:58 51°22.016 2°52.737 11.9719 3.574325 30.709822 1.855004
2010-05-21 07:39:04 51°22.04 2°52.741 11.9719 3.573165 30.698756 1.855004
2010-05-21 07:39:09 51°22.06 2°52.745 11.9651 3.572743 30.696025 1.82018
2010-05-21 07:39:14 51°22.08 2°52.748 11.9666 3.572743 30.696025 1.82018
2010-05-21 07:39:19 51°22.099 2°52.751 11.963 3.566839 30.639051 1.750532
2010-05-21 07:39:23 51°22.115 2°52.754 11.9608 3.571372 30.681655 1.785356
2010-05-21 07:39:29 51°22.139 2°52.758 11.9569 3.57074 30.67562 1.715708
2010-05-21 07:39:34 51°22.159 2°52.761 11.9547 3.570845 30.674687 1.680884
2010-05-21 07:39:38 51°22.175 2°52.764 11.9519 3.56842 30.650909 1.64606
2010-05-21 07:39:43 51°22.195 2°52.767 11.9473 3.56842 30.650909 1.64606
2010-05-21 07:39:49 51°22.219 2°52.772 11.9394 3.569896 30.666281 1.64606
2010-05-21 07:39:54 51°22.239 2°52.775 11.9387 3.571478 30.67943 1.64606
2010-05-21 07:39:58 51°22.254 2°52.778 11.9403 3.568736 30.654572 1.576412
2010-05-21 07:40:04 51°22.278 2°52.782 11.9375 3.571162 30.678997 1.611236
2010-05-21 07:40:09 51°22.298 2°52.785 11.9433 3.571162 30.678997 1.611236
2010-05-21 07:40:14 51°22.318 2°52.789 11.9444 3.571056 30.681222 1.541588
2010-05-21 07:40:19 51°22.338 2°52.793 11.9402 3.571689 30.689198 1.576412
2010-05-21 07:40:23 51°22.354 2°52.796 11.9407 3.572216 30.698109 1.541588
2010-05-21 07:40:29 51°22.377 2°52.8 11.9384 3.572532 30.706303 1.541588
2010-05-21 07:40:34 51°22.398 2°52.804 11.9428 3.572111 30.705513 1.541588
2010-05-21 07:40:39 51°22.417 2°52.807 11.9413 3.569475 30.680999 1.506764
2010-05-21 07:40:44 51°22.437 2°52.811 11.945 3.569475 30.680999 1.506764
2010-05-21 07:40:49 51°22.457 2°52.814 11.9466 3.572005 30.705154 1.47194
2010-05-21 07:40:54 51°22.477 2°52.818 11.954 3.572638 30.711193 1.47194
2010-05-21 07:40:58 51°22.493 2°52.821 11.9615 3.573376 30.716297 1.47194
2010-05-21 07:41:04 51°22.517 2°52.825 11.9753 3.573165 30.716873 1.506764
2010-05-21 07:41:09 51°22.537 2°52.829 11.9857 3.573481 30.721188 1.541588
2010-05-21 07:41:14 51°22.557 2°52.832 11.9927 3.573481 30.721188 1.541588
2010-05-21 07:41:18 51°22.573 2°52.835 12.0031 3.573903 30.724567 1.541588
2010-05-21 07:41:23 51°22.593 2°52.839 12.012 3.573271 30.718527 1.576412
2010-05-21 07:41:29 51°22.617 2°52.843 12.0194 3.573271 30.714643 1.506764
2010-05-21 07:41:34 51°22.637 2°52.847 12.0244 3.573376 30.709824 1.506764
2010-05-21 07:41:39 51°22.657 2°52.85 12.0215 3.569369 30.669004 1.506764
2010-05-21 07:41:43 51°22.673 2°52.853 12.0183 3.569369 30.669004 1.506764
2010-05-21 07:41:49 51°22.697 2°52.857 12.0157 3.572216 30.687763 1.47194
2010-05-21 07:41:54 51°22.717 2°52.861 12.0135 3.571478 30.674262 1.402292
2010-05-21 07:41:58 51°22.733 2°52.864 12.0155 3.569263 30.644111 1.367467
2010-05-21 07:42:03 51°22.753 2°52.867 12.0256 3.570318 30.643843 1.367467
2010-05-21 07:42:09 51°22.778 2°52.871 12.0312 3.565046 30.590385 1.297819
2010-05-21 07:42:14 51°22.797 2°52.875 12.0393 3.565046 30.590385 1.297819
2010-05-21 07:42:19 51°22.818 2°52.878 12.0433 3.569263 30.622841 1.367467
2010-05-21 07:42:23 51°22.834 2°52.881 12.0421 3.569896 30.62758 1.332643
2010-05-21 07:42:29 51°22.858 2°52.886 12.043 3.568525 30.616453 1.332643
2010-05-21 07:42:34 51°22.878 2°52.889 12.0396 3.564835 30.580655 1.332643
2010-05-21 07:42:38 51°22.894 2°52.892 12.0452 3.569369 30.622557 1.367467
2010-05-21 07:42:44 51°22.918 2°52.896 12.0522 3.569369 30.622557 1.367467
2010-05-21 07:42:49 51°22.938 2°52.9 12.0565 3.567471 30.600616 1.297819
2010-05-21 07:42:54 51°22.958 2°52.904 12.0589 3.569368 30.6129 1.297819
2010-05-21 07:42:58 51°22.974 2°52.907 12.0568 3.564729 30.563581 1.297819
2010-05-21 07:43:04 51°22.998 2°52.911 12.0529 3.567787 30.591407 1.297819
2010-05-21 07:43:09 51°23.018 2°52.914 12.0461 3.568736 30.597869 1.297819
2010-05-21 07:43:14 51°23.038 2°52.918 12.0423 3.568736 30.597869 1.297819
2010-05-21 07:43:18 51°23.054 2°52.92 12.0341 3.565045 30.562738 1.332643
2010-05-21 07:43:24 51°23.078 2°52.925 12.0245 3.565994 30.567916 1.262995
2010-05-21 07:43:29 51°23.098 2°52.928 12.0281 3.564413 30.549012 1.297819
2010-05-21 07:43:34 51°23.118 2°52.932 12.0148 3.567787 30.578552 1.297819
2010-05-21 07:43:39 51°23.138 2°52.934 12.0028 3.564729 30.548813 1.297819
2010-05-21 07:43:43 51°23.154 2°52.937 12.0004 3.564729 30.548813 1.297819
2010-05-21 07:43:49 51°23.178 2°52.941 11.9895 3.567681 30.578191 1.297819
2010-05-21 07:43:54 51°23.199 2°52.944 11.9681 3.568103 30.586061 1.297819
2010-05-21 07:43:58 51°23.214 2°52.947 11.9388 3.56863 30.594936 1.332643
2010-05-21 07:44:03 51°23.235 2°52.95 11.9149 3.569263 30.607391 1.332643
2010-05-21 07:44:09 51°23.259 2°52.954 11.8929 3.569052 30.611174 1.332643
2010-05-21 07:44:14 51°23.279 2°52.958 11.8854 3.569052 30.611174 1.332643
2010-05-21 07:44:19 51°23.299 2°52.961 11.872 3.568103 30.606642 1.297819
2010-05-21 07:44:23 51°23.315 2°52.964 11.8789 3.565678 30.589977 1.297819
2010-05-21 07:44:29 51°23.339 2°52.968 11.8858 3.568736 30.626192 1.262995
2010-05-21 07:44:34 51°23.359 2°52.972 11.8964 3.568314 30.63442 1.297819
2010-05-21 07:44:38 51°23.375 2°52.975 11.9047 3.572216 30.693582 1.332643
2010-05-21 07:44:44 51°23.4 2°52.979 11.9012 3.572216 30.693582 1.332643
2010-05-21 07:44:49 51°23.42 2°52.982 11.8918 3.570213 30.693219 1.228171
2010-05-21 07:44:54 51°23.44 2°52.986 11.8813 3.575801 30.763439 1.297819
2010-05-21 07:44:59 51°23.46 2°52.99 11.8651 3.575591 30.773109 1.228171
2010-05-21 07:45:04 51°23.48 2°52.993 11.8573 3.575169 30.775573 1.297819
2010-05-21 07:45:09 51°23.501 2°52.997 11.8492 3.573798 30.763768 1.228171
2010-05-21 07:45:14 51°23.521 2°53 11.8484 3.573798 30.763768 1.228171
2010-05-21 07:45:18 51°23.537 2°53.003 11.8544 3.571689 30.739068 1.262995
2010-05-21 07:45:24 51°23.561 2°53.007 11.8616 3.571057 30.731724 1.228171
2010-05-21 07:45:29 51°23.581 2°53.011 11.8732 3.571057 30.734968 1.262995
2010-05-21 07:45:34 51°23.601 2°53.016 11.8665 3.570635 30.737425 1.228171
2010-05-21 07:45:39 51°23.622 2°53.019 11.871 3.57053 30.743557 1.228171
2010-05-21 07:45:43 51°23.638 2°53.023 11.8623 3.57053 30.743557 1.228171
2010-05-21 07:45:49 51°23.662 2°53.028 11.8506 3.572322 30.770444 1.228171
2010-05-21 07:45:54 51°23.682 2°53.034 11.8441 3.568949 30.741419 1.228171
2010-05-21 07:45:58 51°23.698 2°53.037 11.839 3.572323 30.774996 1.193347
2010-05-21 07:46:03 51°23.718 2°53.042 11.8274 3.572112 30.772328 1.228171
2010-05-21 07:46:09 51°23.743 2°53.047 11.8173 3.570425 30.75294 1.228171
2010-05-21 07:46:14 51°23.763 2°53.052 11.8143 3.570425 30.75294 1.228171
2010-05-21 07:46:19 51°23.783 2°53.057 11.8026 3.567261 30.722687 1.228171
2010-05-21 07:46:23 51°23.799 2°53.061 11.8018 3.570319 30.752581 1.193347
2010-05-21 07:46:29 51°23.823 2°53.066 11.7916 3.566418 30.717215 1.193347
2010-05-21 07:46:34 51°23.844 2°53.071 11.7789 3.570741 30.764415 1.158523
2010-05-21 07:46:38 51°23.86 2°53.075 11.7762 3.570847 30.771927 1.193347
2010-05-21 07:46:44 51°23.884 2°53.08 11.7691 3.570847 30.771927 1.193347
2010-05-21 07:46:49 51°23.904 2°53.085 11.7596 3.570636 30.779669 1.193347
2010-05-21 07:46:54 51°23.924 2°53.09 11.7587 3.565997 30.744364 1.158523
2010-05-21 07:46:58 51°23.941 2°53.094 11.7609 3.571163 30.797742 1.193347
2010-05-21 07:47:04 51°23.965 2°53.1 11.7542 3.569476 30.788751 1.158523
2010-05-21 07:47:09 51°23.985 2°53.104 11.7514 3.571691 30.81583 1.158523
2010-05-21 07:47:14 51°24.006 2°53.109 11.748 3.571691 30.81583 1.158523
2010-05-21 07:47:18 51°24.022 2°53.113 11.7398 3.567579 30.786208 1.123699
2010-05-21 07:47:24 51°24.046 2°53.118 11.7455 3.573272 30.846656 1.158523
2010-05-21 07:47:29 51°24.066 2°53.122 11.7363 3.573272 30.853191 1.123699
2010-05-21 07:47:34 51°24.086 2°53.126 11.7431 3.573378 30.860086 1.158523
2010-05-21 07:47:38 51°24.102 2°53.129 11.7462 3.572218 30.85223 1.158523
2010-05-21 07:47:44 51°24.126 2°53.134 11.7329 3.572218 30.85223 1.158523
2010-05-21 07:47:49 51°24.146 2°53.139 11.7209 3.570426 30.838306 1.123699
2010-05-21 07:47:54 51°24.166 2°53.142 11.6905 3.574538 30.882989 1.123699
2010-05-21 07:47:59 51°24.186 2°53.147 11.6559 3.57496 30.89031 1.123699
2010-05-21 07:48:03 51°24.201 2°53.149 11.6393 3.574433 30.886561 1.088875
2010-05-21 07:48:09 51°24.225 2°53.154 11.6154 3.57264 30.871323 1.088875
2010-05-21 07:48:14 51°24.245 2°53.157 11.5902 3.57264 30.871323 1.088875
2010-05-21 07:48:18 51°24.261 2°53.16 11.5741 3.575171 30.897575 1.088875
2010-05-21 07:48:24 51°24.284 2°53.165 11.5629 3.576225 30.908351 1.088875
2010-05-21 07:48:29 51°24.304 2°53.169 11.5485 3.578334 30.938435 1.054051
2010-05-21 07:48:34 51°24.324 2°53.171 11.5302 3.58329 31.003789 1.123699
2010-05-21 07:48:39 51°24.343 2°53.175 11.5269 3.589195 31.08364 1.054051
2010-05-21 07:48:43 51°24.359 2°53.177 11.5216 3.589195 31.08364 1.054051
2010-05-21 07:48:49 51°24.383 2°53.181 11.5085 3.589828 31.108234 1.054051
2010-05-21 07:48:54 51°24.403 2°53.184 11.489 3.599423 31.2212 1.054051
2010-05-21 07:48:59 51°24.423 2°53.187 11.4841 3.601111 31.258744 1.019227
2010-05-21 07:49:04 51°24.442 2°53.191 11.4654 3.603536 31.296797 1.054051
2010-05-21 07:49:09 51°24.462 2°53.194 11.4533 3.604907 31.325377 1.088875
2010-05-21 07:49:14 51°24.482 2°53.198 11.4461 3.604907 31.325377 1.088875
2010-05-21 07:49:19 51°24.501 2°53.201 11.4323 3.605434 31.343832 1.088875
2010-05-21 07:49:24 51°24.521 2°53.204 11.4363 3.605962 31.358289 1.123699
2010-05-21 07:49:29 51°24.541 2°53.208 11.4251 3.607649 31.388657 1.088875
2010-05-21 07:49:34 51°24.561 2°53.211 11.4332 3.607649 31.401394 1.158523
2010-05-21 07:49:39 51°24.58 2°53.214 11.4364 3.60786 31.412826 1.193347
2010-05-21 07:49:44 51°24.6 2°53.217 11.4191 3.60786 31.412826 1.193347
2010-05-21 07:49:49 51°24.62 2°53.22 11.4202 3.608282 31.428994 1.262995
2010-05-21 07:49:54 51°24.639 2°53.224 11.4131 3.60902 31.448911 1.332643
2010-05-21 07:49:58 51°24.655 2°53.227 11.4099 3.608177 31.452177 1.297819
2010-05-21 07:50:04 51°24.679 2°53.231 11.4009 3.60765 31.453127 1.332643
2010-05-21 07:50:09 51°24.698 2°53.234 11.4107 3.607334 31.45612 1.332643
2010-05-21 07:50:14 51°24.718 2°53.237 11.4039 3.607334 31.45612 1.332643
2010-05-21 07:50:19 51°24.737 2°53.241 11.4024 3.607755 31.463574 1.297819
2010-05-21 07:50:23 51°24.753 2°53.244 11.3996 3.607861 31.469311 1.297819
2010-05-21 07:50:29 51°24.777 2°53.248 11.3972 3.607545 31.471636 1.297819
2010-05-21 07:50:34 51°24.796 2°53.252 11.3879 3.607228 31.475983 1.332643
2010-05-21 07:50:38 51°24.812 2°53.254 11.3906 3.607545 31.47905 1.297819
2010-05-21 07:50:43 51°24.832 2°53.258 11.3829 3.607545 31.47905 1.297819
2010-05-21 07:50:49 51°24.855 2°53.262 11.3793 3.607334 31.481051 1.332643
2010-05-21 07:50:54 51°24.875 2°53.265 11.3824 3.608072 31.487535 1.297819
2010-05-21 07:50:58 51°24.891 2°53.268 11.3722 3.606596 31.478614 1.297819
2010-05-21 07:51:04 51°24.915 2°53.272 11.3733 3.607545 31.489842 1.262995
2010-05-21 07:51:09 51°24.934 2°53.276 11.3734 3.607545 31.489842 1.262995
2010-05-21 07:51:14 51°24.954 2°53.279 11.3726 3.607967 31.496633 1.262995
2010-05-21 07:51:19 51°24.974 2°53.282 11.3645 3.608283 31.505778 1.332643
2010-05-21 07:51:23 51°24.99 2°53.284 11.361 3.606807 31.493481 1.332643
2010-05-21 07:51:29 51°25.013 2°53.288 11.3582 3.605858 31.486973 1.332643
2010-05-21 07:51:34 51°25.033 2°53.291 11.3601 3.608494 31.51458 1.297819
2010-05-21 07:51:39 51°25.053 2°53.295 11.3585 3.607862 31.514521 1.297819
2010-05-21 07:51:44 51°25.073 2°53.297 11.3615 3.607862 31.514521 1.297819
2010-05-21 07:51:49 51°25.092 2°53.301 11.3546 3.607967 31.51622 1.262995
2010-05-21 07:51:54 51°25.112 2°53.303 11.3596 3.605647 31.497757 1.262995
2010-05-21 07:51:58 51°25.128 2°53.306 11.3657 3.608283 31.524699 1.228171
2010-05-21 07:52:04 51°25.152 2°53.309 11.3555 3.609022 31.535924 1.297819
2010-05-21 07:52:09 51°25.171 2°53.313 11.3491 3.607651 31.525995 1.228171
2010-05-21 07:52:14 51°25.191 2°53.316 11.3512 3.607651 31.525995 1.228171
2010-05-21 07:52:18 51°25.207 2°53.319 11.3473 3.608916 31.53896 1.228171
2010-05-21 07:52:24 51°25.23 2°53.323 11.3443 3.609865 31.548853 1.193347
2010-05-21 07:52:29 51°25.25 2°53.326 11.3389 3.609022 31.542691 1.193347
2010-05-21 07:52:34 51°25.27 2°53.329 11.3416 3.610287 31.553626 1.158523
2010-05-21 07:52:38 51°25.286 2°53.332 11.3376 3.6086 31.539948 1.193347
2010-05-21 07:52:43 51°25.305 2°53.335 11.3354 3.6086 31.539948 1.193347
2010-05-21 07:52:49 51°25.329 2°53.339 11.3303 3.609971 31.557325 1.193347
2010-05-21 07:52:54 51°25.348 2°53.342 11.3257 3.611447 31.571666 1.158523
2010-05-21 07:52:58 51°25.364 2°53.345 11.3216 3.61208 31.580524 1.193347
2010-05-21 07:53:04 51°25.388 2°53.348 11.3236 3.609022 31.553524 1.158523
2010-05-21 07:53:09 51°25.408 2°53.351 11.3276 3.612502 31.591403 1.158523
2010-05-21 07:53:14 51°25.427 2°53.355 11.3251 3.612502 31.591403 1.158523
2010-05-21 07:53:19 51°25.447 2°53.358 11.3215 3.612923 31.594145 1.158523
2010-05-21 07:53:23 51°25.463 2°53.361 11.3246 3.612923 31.598894 1.158523
2010-05-21 07:53:29 51°25.486 2°53.365 11.3188 3.61324 31.605362 1.123699
2010-05-21 07:53:34 51°25.506 2°53.368 11.3158 3.611553 31.591676 1.158523
2010-05-21 07:53:39 51°25.526 2°53.371 11.3066 3.6144 31.624787 1.158523
2010-05-21 07:53:44 51°25.546 2°53.375 11.3072 3.6144 31.624787 1.158523
2010-05-21 07:53:49 51°25.566 2°53.379 11.3114 3.614716 31.627863 1.123699
2010-05-21 07:53:54 51°25.586 2°53.382 11.3042 3.614927 31.628555 1.123699
2010-05-21 07:53:59 51°25.605 2°53.387 11.3045 3.615454 31.635041 1.158523
2010-05-21 07:54:04 51°25.625 2°53.39 11.3095 3.613029 31.612137 1.158523
2010-05-21 07:54:09 51°25.645 2°53.394 11.3126 3.61556 31.639464 1.123699
2010-05-21 07:54:14 51°25.665 2°53.398 11.3214 3.61556 31.639464 1.123699
2010-05-21 07:54:18 51°25.681 2°53.401 11.3263 3.616403 31.651068 1.158523
2010-05-21 07:54:24 51°25.705 2°53.405 11.328 3.61672 31.658907 1.158523
2010-05-21 07:54:29 51°25.725 2°53.409 11.3302 3.616931 31.660278 1.158523
2010-05-21 07:54:34 51°25.746 2°53.412 11.3347 3.617036 31.664026 1.158523
2010-05-21 07:54:39 51°25.766 2°53.416 11.3367 3.617036 31.664026 1.158523
2010-05-21 07:54:43 51°25.782 2°53.418 11.3333 3.617985 31.674621 1.088875
2010-05-21 07:54:49 51°25.806 2°53.422 11.3246 3.615138 31.6442 0.984403
2010-05-21 07:54:54 51°25.826 2°53.425 11.3227 3.61672 31.658227 0.914755
2010-05-21 07:54:58 51°25.842 2°53.429 11.3121 3.618196 31.669866 0.845107
2010-05-21 07:55:04 51°25.866 2°53.433 11.3031 3.617985 31.663732 0.810283
2010-05-21 07:55:09 51°25.886 2°53.438 11.2877 3.620937 31.688367 0.740634
2010-05-21 07:55:14 51°25.906 2°53.442 11.2834 3.620937 31.688367 0.740634
2010-05-21 07:55:19 51°25.926 2°53.446 11.2833 3.619566 31.673673 0.670986
2010-05-21 07:55:23 51°25.942 2°53.449 11.2943 3.622097 31.694202 0.670986
2010-05-21 07:55:29 51°25.966 2°53.454 11.2968 3.623046 31.706156 0.740634
2010-05-21 07:55:34 51°25.986 2°53.457 11.3057 3.623257 31.712976 0.775459
2010-05-21 07:55:39 51°26.007 2°53.461 11.3046 3.623679 31.723213 0.914755
2010-05-21 07:55:44 51°26.027 2°53.465 11.3118 3.623679 31.723213 0.914755
2010-05-21 07:55:49 51°26.047 2°53.469 11.3088 3.621465 31.709163 0.949579
2010-05-21 07:55:54 51°26.067 2°53.473 11.3113 3.622836 31.732734 0.984403
2010-05-21 07:55:59 51°26.087 2°53.476 11.3094 3.623574 31.743333 0.914755
2010-05-21 07:56:04 51°26.107 2°53.481 11.3042 3.624101 31.747784 0.810283
2010-05-21 07:56:09 51°26.127 2°53.484 11.3054 3.621992 31.724522 0.775459
2010-05-21 07:56:14 51°26.147 2°53.489 11.2986 3.621992 31.724522 0.775459
2010-05-21 07:56:19 51°26.167 2°53.492 11.2945 3.619989 31.702292 0.670986
2010-05-21 07:56:24 51°26.187 2°53.496 11.2877 3.622308 31.720781 0.601338
2010-05-21 07:56:29 51°26.207 2°53.499 11.2886 3.620199 31.698893 0.566514
2010-05-21 07:56:34 51°26.227 2°53.503 11.291 3.62157 31.710189 0.601338
2010-05-21 07:56:39 51°26.247 2°53.507 11.2908 3.62157 31.710189 0.601338
2010-05-21 07:56:44 51°26.267 2°53.511 11.2986 3.623468 31.731389 0.601338
2010-05-21 07:56:49 51°26.287 2°53.514 11.2891 3.62157 31.711552 0.53169
2010-05-21 07:56:54 51°26.307 2°53.519 11.2899 3.624312 31.740964 0.53169
2010-05-21 07:56:58 51°26.323 2°53.522 11.2899 3.625261 31.752933 0.566514
2010-05-21 07:57:04 51°26.347 2°53.528 11.2817 3.624523 31.750526 0.566514
2010-05-21 07:57:09 51°26.367 2°53.531 11.2727 3.623785 31.74607 0.53169
2010-05-21 07:57:14 51°26.387 2°53.535 11.2729 3.623785 31.74607 0.53169
2010-05-21 07:57:18 51°26.403 2°53.538 11.2788 3.623785 31.745387 0.53169
2010-05-21 07:57:23 51°26.423 2°53.542 11.2811 3.62389 31.744366 0.462042
2010-05-21 07:57:29 51°26.447 2°53.547 11.2814 3.623785 31.74607 0.53169
2010-05-21 07:57:34 51°26.466 2°53.551 11.288 3.624207 31.750859 0.53169
2010-05-21 07:57:39 51°26.486 2°53.555 11.2952 3.622625 31.736823 0.566514
2010-05-21 07:57:43 51°26.502 2°53.558 11.2944 3.622625 31.736823 0.566514
2010-05-21 07:57:49 51°26.526 2°53.562 11.2885 3.624734 31.761458 0.496866
2010-05-21 07:57:54 51°26.546 2°53.566 11.2863 3.623469 31.753233 0.496866
2010-05-21 07:57:58 51°26.562 2°53.569 11.2807 3.623679 31.758703 0.462042
2010-05-21 07:58:04 51°26.586 2°53.574 11.2926 3.620727 31.727213 0.427218
2010-05-21 07:58:09 51°26.606 2°53.578 11.2957 3.623258 31.751178 0.392394
2010-05-21 07:58:14 51°26.626 2°53.582 11.2981 3.623258 31.751178 0.392394
2010-05-21 07:58:19 51°26.646 2°53.586 11.2997 3.622836 31.740925 0.427218
2010-05-21 07:58:24 51°26.666 2°53.589 11.2961 3.621781 31.732022 0.392394
2010-05-21 07:58:29 51°26.686 2°53.593 11.2958 3.621992 31.732028 0.427218
2010-05-21 07:58:34 51°26.706 2°53.597 11.2976 3.621676 31.728947 0.427218
2010-05-21 07:58:38 51°26.722 2°53.6 11.3021 3.621149 31.725178 0.392394
2010-05-21 07:58:44 51°26.746 2°53.605 11.3067 3.621149 31.725178 0.392394
2010-05-21 07:58:49 51°26.766 2°53.609 11.3186 3.621359 31.723138 0.392394
2010-05-21 07:58:54 51°26.786 2°53.613 11.3292 3.620516 31.716289 0.462042
2010-05-21 07:58:58 51°26.802 2°53.617 11.3329 3.620305 31.710826 0.427218
2010-05-21 07:59:04 51°26.826 2°53.621 11.3347 3.62041 31.71117 0.427218
2010-05-21 07:59:09 51°26.846 2°53.625 11.3391 3.619883 31.706038 0.427218
2010-05-21 07:59:14 51°26.866 2°53.629 11.3446 3.619883 31.706038 0.427218
2010-05-21 07:59:19 51°26.886 2°53.633 11.3489 3.619989 31.705019 0.392394
2010-05-21 07:59:23 51°26.902 2°53.636 11.3574 3.619672 31.699213 0.35757
2010-05-21 07:59:29 51°26.926 2°53.641 11.3614 3.618829 31.684872 0.322746
2010-05-21 07:59:34 51°26.947 2°53.645 11.361 3.618196 31.67395 0.287922
2010-05-21 07:59:38 51°26.963 2°53.648 11.3554 3.618196 31.667144 0.218274
2010-05-21 07:59:44 51°26.987 2°53.653 11.3496 3.618196 31.667144 0.218274
2010-05-21 07:59:49 51°27.007 2°53.657 11.3469 3.617247 31.652473 0.18345
2010-05-21 07:59:54 51°27.027 2°53.661 11.3577 3.61693 31.644638 0.218274
2010-05-21 07:59:59 51°27.047 2°53.666 11.368 3.616508 31.635781 0.18345
2010-05-21 08:00:03 51°27.063 2°53.669 11.3708 3.616192 31.625914 0.18345
2010-05-21 08:00:09 51°27.087 2°53.674 11.3732 3.616192 31.625914 0.18345
2010-05-21 08:00:14 51°27.107 2°53.679 11.3744 3.616297 31.625581 0.18345
2010-05-21 08:00:19 51°27.127 2°53.683 11.3671 3.616825 31.62731 0.18345
2010-05-21 08:00:24 51°27.147 2°53.687 11.3665 3.617036 31.630718 0.253098
2010-05-21 08:00:29 51°27.167 2°53.691 11.3724 3.616614 31.630013 0.18345
2010-05-21 08:00:34 51°27.188 2°53.696 11.3807 3.61693 31.628335 0.253098
2010-05-21 08:00:39 51°27.208 2°53.7 11.3875 3.617035 31.624608 0.148626
2010-05-21 08:00:44 51°27.228 2°53.704 11.3964 3.617035 31.624608 0.148626
2010-05-21 08:00:49 51°27.248 2°53.708 11.4012 3.616508 31.615414 0.18345
2010-05-21 08:00:54 51°27.268 2°53.712 11.403 3.61577 31.606887 0.148626
2010-05-21 08:00:58 51°27.284 2°53.715 11.4032 3.616192 31.609628 0.148626
2010-05-21 08:01:04 51°27.308 2°53.72 11.4117 3.615981 31.608935 0.148626
2010-05-21 08:01:09 51°27.328 2°53.724 11.4187 3.614399 31.590859 0.148626
2010-05-21 08:01:14 51°27.348 2°53.728 11.4262 3.614399 31.590859 0.148626
2010-05-21 08:01:19 51°27.369 2°53.732 11.4331 3.614505 31.586462 0.113802
2010-05-21 08:01:23 51°27.385 2°53.735 11.4364 3.613345 31.570457 0.078977
2010-05-21 08:01:29 51°27.409 2°53.739 11.4418 3.612712 31.558899 0.113802
2010-05-21 08:01:34 51°27.429 2°53.743 11.4458 3.612817 31.553834 0.078977
2010-05-21 08:01:38 51°27.445 2°53.747 11.4442 3.612817 31.552481 0.078977
2010-05-21 08:01:44 51°27.469 2°53.751 11.4294 3.612817 31.552481 0.078977
2010-05-21 08:01:49 51°27.489 2°53.755 11.4202 3.611868 31.537186 0.044153
2010-05-21 08:01:54 51°27.509 2°53.758 11.4066 3.612079 31.533826 0.044153
2010-05-21 08:01:59 51°27.529 2°53.763 11.3951 3.611657 31.522304 0.078977
2010-05-21 08:02:03 51°27.546 2°53.766 11.3863 3.611552 31.51723 0.078977
2010-05-21 08:02:09 51°27.569 2°53.771 11.382 3.611024 31.506719 0.078977
2010-05-21 08:02:14 51°27.59 2°53.775 11.3774 3.611024 31.506719 0.078977
2010-05-21 08:02:19 51°27.61 2°53.779 11.3741 3.610708 31.499605 0.113802
2010-05-21 08:02:24 51°27.63 2°53.782 11.3614 3.610919 31.505022 0.113802
2010-05-21 08:02:29 51°27.65 2°53.787 11.3569 3.611973 31.520646 0.148626
2010-05-21 08:02:34 51°27.67 2°53.79 11.3492 3.611974 31.528749 0.148626
2010-05-21 08:02:38 51°27.686 2°53.794 11.3539 3.614083 31.557997 0.148626
2010-05-21 08:02:44 51°27.71 2°53.798 11.3591 3.614083 31.557997 0.148626
2010-05-21 08:02:49 51°27.73 2°53.802 11.3618 3.614926 31.575657 0.148626
2010-05-21 08:02:54 51°27.75 2°53.806 11.3505 3.614294 31.573577 0.18345
2010-05-21 08:02:58 51°27.766 2°53.809 11.3497 3.614505 31.582397 0.18345
2010-05-21 08:03:04 51°27.791 2°53.813 11.3608 3.615243 31.597697 0.253098
2010-05-21 08:03:09 51°27.811 2°53.817 11.3876 3.615454 31.604492 0.253098
2010-05-21 08:03:14 51°27.831 2°53.821 11.3959 3.615454 31.604492 0.253098
2010-05-21 08:03:18 51°27.847 2°53.823 11.397 3.614083 31.595243 0.253098
2010-05-21 08:03:24 51°27.871 2°53.828 11.3804 3.615137 31.607523 0.253098
2010-05-21 08:03:29 51°27.891 2°53.832 11.3665 3.61345 31.593164 0.253098
2010-05-21 08:03:34 51°27.911 2°53.835 11.3614 3.613872 31.597941 0.253098
2010-05-21 08:03:38 51°27.927 2°53.839 11.3456 3.612818 31.587017 0.218274
2010-05-21 08:03:44 51°27.952 2°53.843 11.3351 3.612818 31.587017 0.218274
2010-05-21 08:03:49 51°27.972 2°53.847 11.3239 3.611236 31.56623 0.18345
2010-05-21 08:03:54 51°27.992 2°53.851 11.3204 3.609338 31.536289 0.218274
2010-05-21 08:03:58 51°28.008 2°53.854 11.3059 3.6086 31.525066 0.218274
2010-05-21 08:04:03 51°28.028 2°53.859 11.3038 3.608705 31.525413 0.253098
2010-05-21 08:04:09 51°28.052 2°53.863 11.292 3.610603 31.551283 0.287922
2010-05-21 08:04:14 51°28.073 2°53.867 11.2902 3.610603 31.551283 0.287922
2010-05-21 08:04:19 51°28.093 2°53.871 11.3022 3.611763 31.569996 0.287922
2010-05-21 08:04:23 51°28.109 2°53.873 11.2879 3.612185 31.58087 0.322746
2010-05-21 08:04:29 51°28.133 2°53.878 11.2873 3.613134 31.601622 0.35757
2010-05-21 08:04:34 51°28.153 2°53.881 11.2981 3.613029 31.611458 0.35757
2010-05-21 08:04:38 51°28.17 2°53.884 11.297 3.61324 31.620301 0.35757
2010-05-21 08:04:44 51°28.194 2°53.888 11.3009 3.61324 31.620301 0.35757
2010-05-21 08:04:49 51°28.214 2°53.892 11.3066 3.612924 31.625379 0.392394
2010-05-21 08:04:54 51°28.234 2°53.895 11.3099 3.614295 31.646196 0.392394
2010-05-21 08:04:58 51°28.25 2°53.898 11.3103 3.612924 31.634218 0.392394
2010-05-21 08:05:04 51°28.274 2°53.902 11.312 3.612713 31.637608 0.35757
2010-05-21 08:05:09 51°28.294 2°53.906 11.3095 3.612291 31.634863 0.392394
2010-05-21 08:05:14 51°28.314 2°53.91 11.3077 3.612291 31.634863 0.392394
2010-05-21 08:05:19 51°28.334 2°53.915 11.2957 3.611764 31.625652 0.322746
2010-05-21 08:05:23 51°28.35 2°53.918 11.2886 3.610815 31.616417 0.322746
2010-05-21 08:05:29 51°28.375 2°53.923 11.2862 3.609971 31.605491 0.35757
2010-05-21 08:05:34 51°28.395 2°53.927 11.2952 3.608811 31.590131 0.35757
2010-05-21 08:05:38 51°28.411 2°53.93 11.2999 3.608811 31.590131 0.35757
2010-05-21 08:05:44 51°28.435 2°53.935 11.3107 3.609866 31.598351 0.35757
2010-05-21 08:05:49 51°28.455 2°53.938 11.3264 3.60955 31.595274 0.392394
2010-05-21 08:05:54 51°28.476 2°53.942 11.3416 3.610393 31.603479 0.427218
2010-05-21 08:05:58 51°28.492 2°53.945 11.3464 3.611026 31.614391 0.53169
2010-05-21 08:06:03 51°28.512 2°53.949 11.348 3.610499 31.614019 0.462042
2010-05-21 08:06:09 51°28.536 2°53.953 11.3501 3.611764 31.627012 0.462042
2010-05-21 08:06:14 51°28.556 2°53.957 11.3499 3.611764 31.627012 0.462042
2010-05-21 08:06:19 51°28.576 2°53.961 11.3496 3.612186 31.629756 0.392394
2010-05-21 08:06:23 51°28.592 2°53.965 11.3492 3.610604 31.610967 0.322746
2010-05-21 08:06:29 51°28.616 2°53.97 11.3561 3.610393 31.597367 0.253098
2010-05-21 08:06:34 51°28.636 2°53.974 11.3674 3.608706 31.572139 0.218274
2010-05-21 08:06:39 51°28.657 2°53.978 11.3753 3.608811 31.565705 0.18345
2010-05-21 08:06:43 51°28.673 2°53.98 11.378 3.608811 31.565705 0.18345
2010-05-21 08:06:49 51°28.697 2°53.985 11.374 3.609233 31.564381 0.218274
2010-05-21 08:06:54 51°28.717 2°53.989 11.365 3.608495 31.554498 0.18345
2010-05-21 08:06:58 51°28.733 2°53.992 11.3574 3.610182 31.566826 0.18345
2010-05-21 08:07:03 51°28.753 2°53.996 11.3471 3.611025 31.573667 0.218274
2010-05-21 08:07:09 51°28.777 2°54 11.3327 3.611552 31.576079 0.148626
2010-05-21 08:07:14 51°28.797 2°54.003 11.3269 3.611552 31.576079 0.148626
2010-05-21 08:07:19 51°28.817 2°54.008 11.3266 3.609971 31.555293 0.18345
2010-05-21 08:07:23 51°28.833 2°54.01 11.3291 3.610709 31.557723 0.148626
2010-05-21 08:07:29 51°28.857 2°54.015 11.3306 3.611447 31.562183 0.148626
2010-05-21 08:07:34 51°28.878 2°54.018 11.3228 3.612396 31.572077 0.18345
2010-05-21 08:07:38 51°28.893 2°54.021 11.3175 3.613661 31.591145 0.113802
2010-05-21 08:07:43 51°28.913 2°54.025 11.3202 3.613661 31.591145 0.113802
2010-05-21 08:07:49 51°28.937 2°54.03 11.3169 3.615032 31.60989 0.18345
2010-05-21 08:07:54 51°28.957 2°54.034 11.3132 3.615454 31.623492 0.218274
2010-05-21 08:07:58 51°28.973 2°54.037 11.305 3.617036 31.642265 0.18345
2010-05-21 08:08:03 51°28.993 2°54.041 11.2901 3.617985 31.654211 0.218274
2010-05-21 08:08:09 51°29.017 2°54.045 11.2793 3.618512 31.660698 0.253098
2010-05-21 08:08:13 51°29.033 2°54.048 11.2716 3.618512 31.660698 0.253098
2010-05-21 08:08:18 51°29.053 2°54.051 11.2622 3.619777 31.678446 0.287922
2010-05-21 08:08:23 51°29.073 2°54.055 11.2514 3.621254 31.692805 0.253098
2010-05-21 08:08:29 51°29.097 2°54.06 11.2491 3.622835 31.710235 0.287922
2010-05-21 08:08:34 51°29.117 2°54.064 11.2402 3.624101 31.726635 0.322746
2010-05-21 08:08:38 51°29.133 2°54.067 11.2277 3.62505 31.743373 0.35757
2010-05-21 08:08:43 51°29.153 2°54.071 11.2132 3.62505 31.743373 0.35757
2010-05-21 08:08:48 51°29.172 2°54.074 11.2136 3.626315 31.763882 0.392394
2010-05-21 08:08:54 51°29.196 2°54.079 11.2043 3.627264 31.782005 0.427218
2010-05-21 08:08:58 51°29.212 2°54.081 11.2044 3.628425 31.802194 0.462042
2010-05-21 08:09:03 51°29.232 2°54.085 11.1903 3.628319 31.810749 0.53169
2010-05-21 08:09:09 51°29.256 2°54.09 11.1831 3.628319 31.810749 0.53169
2010-05-21 08:09:14 51°29.275 2°54.094 11.1774 3.629374 31.826505 0.566514
2010-05-21 08:09:18 51°29.291 2°54.097 11.1576 3.630007 31.842954 0.636162
2010-05-21 08:09:23 51°29.311 2°54.102 11.1546 3.630745 31.859071 0.70581
2010-05-21 08:09:29 51°29.335 2°54.106 11.1642 3.631799 31.878284 0.670986
2010-05-21 08:09:33 51°29.351 2°54.11 11.1804 3.631589 31.883783 0.740634
2010-05-21 08:09:38 51°29.371 2°54.114 11.2007 3.631589 31.88997 0.740634
2010-05-21 08:09:43 51°29.391 2°54.119 11.2169 3.631589 31.88997 0.740634
2010-05-21 08:09:49 51°29.415 2°54.124 11.2315 3.632221 31.903712 0.775459
2010-05-21 08:09:54 51°29.435 2°54.129 11.2354 3.632011 31.908534 0.810283
2010-05-21 08:09:58 51°29.451 2°54.132 11.2424 3.632011 31.918861 0.845107
2010-05-21 08:10:03 51°29.471 2°54.137 11.2439 3.632011 31.927128 0.879931
2010-05-21 08:10:08 51°29.491 2°54.142 11.2398 3.631167 31.919574 0.740634
2010-05-21 08:10:14 51°29.515 2°54.147 11.2428 3.631167 31.919574 0.740634
2010-05-21 08:10:18 51°29.531 2°54.151 11.2483 3.630745 31.907188 0.670986
2010-05-21 08:10:23 51°29.55 2°54.155 11.246 3.630429 31.891023 0.496866
2010-05-21 08:10:29 51°29.575 2°54.161 11.248 3.630534 31.881051 0.427218
2010-05-21 08:10:34 51°29.595 2°54.165 11.2466 3.63085 31.875893 0.35757
2010-05-21 08:10:38 51°29.611 2°54.169 11.2523 3.62969 31.85702 0.322746
2010-05-21 08:10:42 51°29.627 2°54.172 11.2585 3.62969 31.85702 0.322746
2010-05-21 08:10:49 51°29.655 2°54.178 11.2596 3.629163 31.847073 0.253098
2010-05-21 08:10:54 51°29.675 2°54.183 11.2652 3.630323 31.857702 0.253098
2010-05-21 08:10:58 51°29.691 2°54.186 11.2572 3.628847 31.841244 0.218274
2010-05-21 08:11:03 51°29.711 2°54.191 11.2581 3.629163 31.841585 0.148626
2010-05-21 08:11:08 51°29.731 2°54.195 11.2485 3.629163 31.841585 0.148626
2010-05-21 08:11:14 51°29.755 2°54.202 11.2435 3.627581 31.82616 0.113802
2010-05-21 08:11:18 51°29.772 2°54.206 11.2449 3.627054 31.818962 0.078977
2010-05-21 08:11:23 51°29.792 2°54.211 11.2413 3.62621 31.805257 0.078977
2010-05-21 08:11:28 51°29.812 2°54.216 11.2427 3.625894 31.799434 0.044153
2010-05-21 08:11:34 51°29.837 2°54.221 11.2382 3.625472 31.791899 0.044153
2010-05-21 08:11:38 51°29.853 2°54.225 11.2403 3.624945 31.787445 0.078977
2010-05-21 08:11:43 51°29.873 2°54.229 11.2367 3.624945 31.787445 0.078977
2010-05-21 08:11:49 51°29.898 2°54.235 11.2474 3.624629 31.787783 0.078977
2010-05-21 08:11:54 51°29.918 2°54.24 11.2535 3.624102 31.78675 0.044153
2010-05-21 08:11:58 51°29.934 2°54.244 11.2682 3.624207 31.788463 0.009329
2010-05-21 08:12:03 51°29.954 2°54.249 11.2789 3.623785 31.787774 -0.025495
2010-05-21 08:12:09 51°29.979 2°54.255 11.284 3.622731 31.778862 -0.025495
2010-05-21 08:12:13 51°29.995 2°54.259 11.2829 3.622731 31.778862 -0.025495
2010-05-21 08:12:18 51°30.015 2°54.264 11.2798 3.621993 31.775772 -0.025495
2010-05-21 08:12:23 51°30.035 2°54.268 11.278 3.621149 31.764809 -0.095143
2010-05-21 08:12:29 51°30.06 2°54.274 11.2855 3.620622 31.758985 -0.060319
2010-05-21 08:12:34 51°30.08 2°54.279 11.3008 3.618724 31.735012 -0.095143
2010-05-21 08:12:38 51°30.096 2°54.282 11.3213 3.618724 31.735012 -0.095143
2010-05-21 08:12:43 51°30.116 2°54.287 11.3466 3.617458 31.717216 -0.095143
2010-05-21 08:12:49 51°30.141 2°54.292 11.3687 3.615033 31.685398 -0.164791
2010-05-21 08:12:54 51°30.161 2°54.297 11.3864 3.615349 31.680978 -0.095143
2010-05-21 08:12:58 51°30.177 2°54.301 11.3999 3.614611 31.67379 -0.129967
2010-05-21 08:13:03 51°30.197 2°54.306 11.4104 3.614189 31.667638 -0.129967
2010-05-21 08:13:09 51°30.222 2°54.312 11.4147 3.614189 31.664232 -0.164791
2010-05-21 08:13:14 51°30.242 2°54.316 11.4184 3.614189 31.664232 -0.164791
2010-05-21 08:13:18 51°30.258 2°54.32 11.4197 3.611553 31.624279 -0.164791
2010-05-21 08:13:23 51°30.278 2°54.324 11.416 3.610288 31.599058 -0.129967
2010-05-21 08:13:28 51°30.298 2°54.33 11.4108 3.6086 31.562299 -0.164791
2010-05-21 08:13:35 51°30.327 2°54.335 11.4054 3.608705 31.547742 -0.164791
2010-05-21 08:13:39 51°30.342 2°54.341 11.4011 3.608178 31.52638 -0.164791
2010-05-21 08:13:44 51°30.363 2°54.343 11.398 3.608178 31.52638 -0.164791
2010-05-21 08:13:49 51°30.383 2°54.35 11.3945 3.607862 31.512494 -0.129967
2010-05-21 08:13:54 51°30.403 2°54.353 11.3948 3.608283 31.506454 -0.129967
2010-05-21 08:13:59 51°30.423 2°54.359 11.4002 3.608494 31.503773 -0.129967
2010-05-21 08:14:04 51°30.443 2°54.363 11.403 3.609654 31.513 -0.129967
2010-05-21 08:14:09 51°30.464 2°54.368 11.4064 3.609548 31.512652 -0.129967
2010-05-21 08:14:14 51°30.484 2°54.373 11.4121 3.609548 31.512652 -0.129967
2010-05-21 08:14:19 51°30.504 2°54.378 11.4175 3.610076 31.520469 -0.164791
2010-05-21 08:14:23 51°30.52 2°54.382 11.4182 3.610814 31.530334 -0.164791
2010-05-21 08:14:29 51°30.544 2°54.388 11.413 3.610603 31.532343 -0.199615
2010-05-21 08:14:34 51°30.564 2°54.393 11.402 3.610287 31.529949 -0.199615
2010-05-21 08:14:39 51°30.585 2°54.397 11.3944 3.610287 31.529949 -0.199615
2010-05-21 08:14:44 51°30.605 2°54.402 11.4035 3.609865 31.52518 -0.199615
2010-05-21 08:14:49 51°30.625 2°54.407 11.4038 3.608916 31.513943 -0.164791
2010-05-21 08:14:54 51°30.645 2°54.411 11.4062 3.608705 31.509195 -0.164791
2010-05-21 08:14:59 51°30.666 2°54.416 11.4047 3.60765 31.493565 -0.164791
2010-05-21 08:15:03 51°30.682 2°54.42 11.4001 3.608283 31.499702 -0.199615
2010-05-21 08:15:08 51°30.702 2°54.424 11.4044 3.607967 31.495283 -0.199615
2010-05-21 08:15:14 51°30.726 2°54.43 11.4019 3.607967 31.495283 -0.199615
2010-05-21 08:15:19 51°30.746 2°54.435 11.3917 3.605858 31.480224 -0.164791
2010-05-21 08:15:23 51°30.762 2°54.438 11.375 3.601535 31.440984 -0.164791
2010-05-21 08:15:29 51°30.787 2°54.444 11.3608 3.607334 31.497246 -0.129967
2010-05-21 08:15:33 51°30.803 2°54.448 11.3435 3.607545 31.497942 -0.164791
2010-05-21 08:15:39 51°30.827 2°54.453 11.3378 3.606385 31.488038 -0.164791
2010-05-21 08:15:44 51°30.848 2°54.457 11.3246 3.606385 31.488038 -0.164791
2010-05-21 08:15:48 51°30.864 2°54.461 11.3195 3.606174 31.486667 -0.129967
2010-05-21 08:15:53 51°30.884 2°54.465 11.3172 3.607123 31.49385 -0.199615
2010-05-21 08:15:59 51°30.909 2°54.47 11.3098 3.607861 31.505063 -0.164791
2010-05-21 08:16:03 51°30.925 2°54.473 11.3107 3.608072 31.51792 -0.199615